GFSSE_prec_precacc24_126.txt.gz
Total_Precipitation_Accumulation
0.00 0.00 0.00 0.00 0.00 0.00 0.00 0.00 0.00 0.00 0.00 0.00 0.00 0.00 0.00 0.00 0.00 0.00 0.00 0.00 0.00 0.00 0.01 0.00 0.01 0.03 0.03 0.06 0.14 0.08 0.07 0.05 0.13 0.46 0.34 0.30 0.13 0.06 0.10 0.20 0.16 0.04 0.18
0.00 0.00 0.00 0.00 0.00 0.00 0.00 0.00 0.00 0.00 0.00 0.00 0.00 0.00 0.00 0.00 0.00 0.00 0.00 0.00 0.00 0.04 0.02 0.00 0.01 0.02 0.02 0.05 0.06 0.02 0.00 0.00 0.05 0.32 0.29 0.27 0.25 0.09 0.09 0.20 0.08 0.07 0.15
0.00 0.00 0.00 0.00 0.00 0.00 0.00 0.00 0.00 0.00 0.00 0.00 0.00 0.00 0.00 0.00 0.00 0.01 0.00 0.00 0.03 0.13 0.15 0.02 0.02 0.05 0.02 0.02 0.04 0.04 0.02 0.00 0.04 0.16 0.30 0.12 0.12 0.23 0.06 0.12 0.14 0.10 0.05
0.00 0.00 0.00 0.00 0.00 0.00 0.00 0.00 0.00 0.00 0.00 0.00 0.00 0.00 0.01 0.00 0.01 0.05 0.01 0.00 0.09 0.16 0.19 0.19 0.16 0.07 0.02 0.00 0.02 0.05 0.02 0.01 0.04 0.10 0.41 0.86 0.27 0.34 0.07 0.14 0.13 0.11 0.08
0.00 0.00 0.00 0.00 0.00 0.00 0.00 0.00 0.00 0.00 0.00 0.00 0.00 0.00 0.00 0.03 0.14 0.15 0.06 0.01 0.11 0.18 0.24 0.25 0.29 0.21 0.04 0.00 0.00 0.01 0.03 0.05 0.05 0.13 0.39 0.86 0.41 0.33 0.22 0.25 0.30 0.23 0.21
0.00 0.00 0.00 0.00 0.00 0.00 0.00 0.00 0.00 0.00 0.00 0.00 0.00 0.00 0.00 0.09 0.11 0.07 0.05 0.04 0.07 0.17 0.17 0.16 0.30 0.16 0.01 0.00 0.00 0.00 0.03 0.05 0.20 0.18 0.28 0.83 0.81 0.65 0.52 0.46 0.40 0.27 0.18
0.00 0.00 0.00 0.00 0.00 0.00 0.00 0.00 0.00 0.00 0.00 0.00 0.00 0.00 0.07 0.16 0.02 0.00 0.00 0.00 0.00 0.02 0.07 0.12 0.11 0.06 0.07 0.03 0.11 0.09 0.04 0.17 0.35 0.63 0.45 0.76 1.40 1.08 0.79 0.54 0.54 0.26 0.09
0.00 0.00 0.00 0.00 0.00 0.00 0.00 0.00 0.00 0.00 0.00 0.00 0.02 0.14 0.22 0.08 0.01 0.00 0.00 0.00 0.01 0.01 0.01 0.04 0.06 0.07 0.10 0.24 0.21 0.24 0.22 0.21 0.27 0.52 0.76 0.51 1.37 2.23 1.82 1.11 0.65 0.39 0.16
0.00 0.00 0.00 0.00 0.00 0.00 0.00 0.00 0.00 0.00 0.00 0.00 0.03 0.04 0.04 0.01 0.01 0.02 0.00 0.00 0.00 0.01 0.01 0.03 0.12 0.19 0.38 0.40 0.20 0.26 0.29 0.31 0.29 0.79 1.22 0.65 0.64 1.63 4.33 2.41 0.48 0.23 0.10
0.00 0.00 0.00 0.00 0.00 0.00 0.00 0.00 0.00 0.00 0.00 0.00 0.02 0.03 0.01 0.01 0.02 0.01 0.02 0.00 0.00 0.01 0.00 0.08 0.22 0.29 0.34 0.38 0.50 0.46 0.35 0.26 0.10 0.16 0.61 0.50 0.54 0.25 0.35 0.46 0.33 0.20 0.14
0.00 0.00 0.00 0.00 0.00 0.00 0.00 0.00 0.00 0.00 0.00 0.00 0.01 0.01 0.05 0.09 0.07 0.02 0.00 0.02 0.10 0.01 0.03 0.07 0.22 0.21 0.24 0.30 0.27 0.24 0.23 0.23 0.13 0.11 0.18 0.24 0.51 0.47 0.47 0.20 0.10 0.10 0.08
0.00 0.00 0.00 0.00 0.00 0.00 0.00 0.00 0.00 0.01 0.01 0.02 0.02 0.01 0.03 0.04 0.07 0.04 0.04 0.05 0.10 0.07 0.03 0.08 0.06 0.05 0.11 0.15 0.14 0.11 0.08 0.18 0.09 0.14 0.24 0.37 0.53 0.72 0.42 0.17 0.07 0.05 0.05
0.00 0.00 0.00 0.00 0.00 0.00 0.00 0.01 0.01 0.01 0.01 0.04 0.08 0.10 0.10 0.11 0.11 0.08 0.16 0.10 0.06 0.07 0.06 0.06 0.02 0.08 0.10 0.16 0.18 0.10 0.18 0.15 0.12 0.09 0.27 0.30 0.46 0.76 0.49 0.21 0.16 0.12 0.09
0.00 0.00 0.00 0.00 0.00 0.00 0.00 0.00 0.00 0.01 0.01 0.02 0.04 0.06 0.08 0.10 0.12 0.11 0.12 0.16 0.07 0.06 0.09 0.07 0.04 0.10 0.17 0.24 0.24 0.20 0.17 0.15 0.13 0.07 0.16 0.29 0.46 0.62 0.54 0.31 0.26 0.24 0.18
0.00 0.00 0.00 0.00 0.00 0.00 0.00 0.00 0.00 0.00 0.01 0.01 0.02 0.02 0.04 0.08 0.06 0.08 0.08 0.11 0.10 0.15 0.12 0.06 0.12 0.11 0.24 0.28 0.31 0.29 0.13 0.20 0.11 0.12 0.24 0.49 0.52 0.52 0.74 0.76 0.61 0.57 0.30
0.00 0.00 0.00 0.00 0.00 0.00 0.00 0.00 0.00 0.00 0.00 0.00 0.01 0.01 0.01 0.05 0.06 0.07 0.08 0.05 0.07 0.13 0.15 0.11 0.09 0.18 0.28 0.43 0.30 0.25 0.20 0.23 0.08 0.08 0.17 0.36 0.43 0.50 0.62 0.79 0.87 0.73 0.32
0.00 0.00 0.00 0.00 0.00 0.00 0.00 0.00 0.00 0.00 0.00 0.00 0.00 0.01 0.01 0.01 0.05 0.07 0.05 0.04 0.05 0.14 0.13 0.16 0.13 0.19 0.38 0.69 0.42 0.28 0.18 0.24 0.12 0.04 0.08 0.15 0.23 0.35 0.49 0.66 0.69 0.45 0.18
0.00 0.00 0.00 0.00 0.00 0.00 0.00 0.00 0.00 0.00 0.00 0.00 0.01 0.01 0.00 0.01 0.03 0.08 0.07 0.06 0.07 0.12 0.10 0.13 0.22 0.18 0.34 0.63 0.64 0.37 0.29 0.24 0.28 0.07 0.04 0.09 0.14 0.23 0.31 0.38 0.55 0.50 0.42
0.00 0.00 0.00 0.00 0.00 0.00 0.00 0.01 0.01 0.01 0.00 0.00 0.00 0.01 0.01 0.01 0.02 0.04 0.04 0.04 0.05 0.06 0.04 0.07 0.20 0.27 0.29 0.49 0.67 0.53 0.38 0.28 0.32 0.27 0.06 0.06 0.09 0.15 0.19 0.26 0.27 0.21 0.20
0.00 0.00 0.00 0.00 0.00 0.00 0.00 0.01 0.01 0.01 0.01 0.01 0.00 0.01 0.01 0.01 0.02 0.05 0.05 0.02 0.04 0.04 0.04 0.13 0.16 0.32 0.37 0.42 0.60 0.69 0.39 0.39 0.32 0.38 0.23 0.16 0.16 0.16 0.22 0.23 0.25 0.21 0.15
0.00 0.00 0.00 0.00 0.00 0.00 0.00 0.01 0.01 0.01 0.01 0.02 0.00 0.00 0.01 0.01 0.02 0.05 0.08 0.02 0.01 0.02 0.06 0.23 0.33 0.46 0.55 0.52 0.84 0.95 0.73 0.38 0.36 0.31 0.27 0.26 0.34 0.31 0.36 0.30 0.31 0.29 0.27
0.00 0.00 0.00 0.00 0.00 0.01 0.00 0.01 0.06 0.04 0.03 0.08 0.05 0.01 0.01 0.01 0.01 0.05 0.05 0.00 0.00 0.01 0.04 0.16 0.37 0.72 0.77 0.62 0.72 0.80 0.65 0.42 0.29 0.37 0.24 0.16 0.20 0.31 0.37 0.49 0.28 0.24 0.27
0.00 0.00 0.00 0.00 0.00 0.01 0.00 0.08 0.15 0.12 0.15 0.16 0.07 0.01 0.02 0.02 0.03 0.04 0.04 0.01 0.00 0.01 0.02 0.03 0.16 0.60 0.64 0.65 0.41 0.50 0.23 0.22 0.15 0.26 0.28 0.15 0.13 0.16 0.17 0.27 0.36 0.20 0.16
0.00 0.00 0.00 0.01 0.00 0.02 0.07 0.09 0.06 0.01 0.01 0.01 0.02 0.03 0.06 0.06 0.04 0.04 0.03 0.02 0.00 0.02 0.02 0.02 0.03 0.26 0.52 0.50 0.54 0.48 0.12 0.05 0.06 0.16 0.21 0.16 0.13 0.11 0.11 0.13 0.17 0.19 0.15
0.00 0.00 0.00 0.03 0.13 0.13 0.15 0.30 0.20 0.11 0.07 0.04 0.02 0.01 0.06 0.13 0.18 0.11 0.09 0.07 0.06 0.06 0.08 0.08 0.01 0.07 0.26 0.33 0.38 0.36 0.35 0.18 0.15 0.14 0.20 0.20 0.17 0.09 0.07 0.09 0.16 0.19 0.13
0.02 0.01 0.00 0.00 0.04 0.17 0.16 0.22 0.39 0.31 0.15 0.10 0.05 0.03 0.08 0.23 0.22 0.19 0.23 0.24 0.25 0.24 0.16 0.06 0.03 0.02 0.05 0.17 0.31 0.25 0.27 0.23 0.20 0.22 0.25 0.24 0.22 0.18 0.15 0.13 0.09 0.16 0.25

GFSSE_prec_precacc24_129.txt.gz
Total_Precipitation_Accumulation
0.00 0.00 0.00 0.00 0.00 0.00 0.00 0.00 0.00 0.00 0.00 0.00 0.00 0.00 0.00 0.00 0.00 0.00 0.00 0.00 0.00 0.00 0.00 0.00 0.00 0.02 0.03 0.05 0.14 0.08 0.07 0.05 0.13 0.46 0.33 0.27 0.12 0.06 0.07 0.12 0.15 0.09 0.24
0.00 0.00 0.00 0.00 0.00 0.00 0.00 0.00 0.00 0.00 0.00 0.00 0.00 0.00 0.00 0.00 0.00 0.00 0.00 0.00 0.00 0.03 0.01 0.00 0.01 0.02 0.02 0.05 0.05 0.02 0.00 0.00 0.05 0.33 0.30 0.27 0.23 0.11 0.10 0.19 0.25 0.09 0.22
0.00 0.00 0.00 0.00 0.00 0.00 0.00 0.00 0.00 0.00 0.00 0.00 0.00 0.00 0.00 0.00 0.00 0.01 0.00 0.00 0.02 0.11 0.15 0.01 0.01 0.02 0.01 0.01 0.03 0.04 0.02 0.00 0.04 0.18 0.28 0.11 0.10 0.30 0.09 0.20 0.20 0.15 0.16
0.00 0.00 0.00 0.00 0.00 0.00 0.00 0.00 0.00 0.00 0.00 0.00 0.00 0.00 0.00 0.00 0.01 0.02 0.00 0.00 0.04 0.06 0.12 0.12 0.07 0.02 0.01 0.00 0.01 0.05 0.02 0.01 0.03 0.10 0.29 0.82 0.39 0.33 0.11 0.19 0.28 0.21 0.33
0.00 0.00 0.00 0.00 0.00 0.00 0.00 0.00 0.00 0.00 0.00 0.00 0.00 0.00 0.00 0.03 0.07 0.03 0.01 0.00 0.01 0.03 0.04 0.08 0.14 0.14 0.02 0.00 0.00 0.01 0.03 0.04 0.03 0.10 0.41 0.87 0.62 0.37 0.29 0.28 0.40 0.30 0.40
0.00 0.00 0.00 0.00 0.00 0.00 0.00 0.00 0.00 0.00 0.00 0.00 0.00 0.00 0.00 0.04 0.02 0.02 0.01 0.00 0.02 0.02 0.01 0.01 0.05 0.02 0.00 0.00 0.00 0.00 0.03 0.05 0.17 0.21 0.27 0.85 0.91 0.77 0.64 0.58 0.52 0.46 0.45
0.00 0.00 0.00 0.00 0.00 0.00 0.00 0.00 0.00 0.00 0.00 0.00 0.00 0.00 0.00 0.00 0.00 0.00 0.00 0.00 0.00 0.02 0.00 0.02 0.01 0.00 0.00 0.00 0.03 0.04 0.04 0.16 0.33 0.59 0.45 0.84 1.52 1.18 0.94 0.70 0.78 0.66 0.44
0.00 0.00 0.00 0.00 0.00 0.00 0.00 0.00 0.00 0.00 0.00 0.00 0.00 0.02 0.04 0.01 0.01 0.00 0.00 0.00 0.01 0.01 0.01 0.01 0.00 0.00 0.03 0.04 0.07 0.14 0.13 0.17 0.26 0.53 0.80 0.62 1.38 2.24 1.84 1.20 0.85 0.60 0.47
0.00 0.00 0.00 0.00 0.00 0.00 0.00 0.00 0.00 0.00 0.00 0.00 0.00 0.02 0.02 0.01 0.01 0.02 0.00 0.00 0.00 0.01 0.01 0.02 0.08 0.13 0.27 0.26 0.13 0.18 0.25 0.30 0.34 0.84 1.29 0.69 0.63 1.63 4.34 2.87 0.90 0.38 0.22
0.00 0.00 0.00 0.00 0.00 0.00 0.00 0.00 0.00 0.00 0.00 0.00 0.00 0.01 0.01 0.00 0.02 0.01 0.02 0.00 0.00 0.01 0.00 0.05 0.08 0.09 0.13 0.25 0.43 0.41 0.33 0.26 0.11 0.17 0.65 0.56 0.54 0.27 0.36 0.45 0.34 0.22 0.16
0.00 0.00 0.00 0.00 0.00 0.00 0.00 0.00 0.00 0.00 0.00 0.00 0.00 0.00 0.02 0.02 0.01 0.00 0.00 0.02 0.10 0.01 0.01 0.03 0.07 0.01 0.07 0.13 0.14 0.17 0.22 0.23 0.14 0.12 0.22 0.31 0.51 0.48 0.49 0.20 0.14 0.12 0.12
0.00 0.00 0.00 0.00 0.00 0.00 0.00 0.00 0.00 0.00 0.00 0.00 0.00 0.00 0.01 0.02 0.02 0.01 0.03 0.04 0.07 0.06 0.01 0.03 0.01 0.00 0.01 0.01 0.02 0.04 0.07 0.19 0.09 0.16 0.30 0.42 0.53 0.75 0.44 0.29 0.18 0.14 0.16
0.00 0.00 0.00 0.00 0.00 0.00 0.00 0.00 0.00 0.00 0.00 0.00 0.01 0.02 0.03 0.03 0.05 0.06 0.13 0.08 0.02 0.02 0.04 0.03 0.00 0.00 0.00 0.01 0.05 0.05 0.08 0.14 0.11 0.09 0.29 0.30 0.46 0.80 0.57 0.24 0.18 0.18 0.19
0.00 0.00 0.00 0.00 0.00 0.00 0.00 0.00 0.00 0.00 0.01 0.00 0.01 0.02 0.02 0.03 0.05 0.06 0.08 0.13 0.04 0.03 0.07 0.02 0.00 0.00 0.01 0.05 0.04 0.10 0.13 0.15 0.13 0.07 0.17 0.29 0.45 0.63 0.58 0.37 0.27 0.27 0.29
0.00 0.00 0.00 0.00 0.00 0.00 0.00 0.00 0.00 0.00 0.01 0.00 0.00 0.00 0.02 0.03 0.04 0.07 0.07 0.11 0.08 0.10 0.07 0.04 0.02 0.01 0.02 0.06 0.07 0.14 0.11 0.20 0.11 0.12 0.26 0.49 0.51 0.51 0.75 0.79 0.74 0.76 0.49
0.00 0.00 0.00 0.00 0.00 0.00 0.00 0.00 0.00 0.00 0.00 0.00 0.00 0.00 0.01 0.02 0.04 0.07 0.08 0.05 0.06 0.06 0.08 0.06 0.02 0.01 0.02 0.05 0.11 0.14 0.19 0.23 0.08 0.08 0.18 0.38 0.42 0.50 0.61 0.80 0.92 0.85 0.43
0.00 0.00 0.00 0.00 0.00 0.00 0.00 0.00 0.00 0.00 0.00 0.00 0.00 0.00 0.00 0.01 0.02 0.04 0.02 0.02 0.02 0.05 0.08 0.10 0.08 0.03 0.06 0.24 0.26 0.23 0.18 0.24 0.12 0.05 0.09 0.16 0.24 0.35 0.48 0.65 0.69 0.58 0.31
0.00 0.00 0.00 0.00 0.00 0.00 0.00 0.00 0.00 0.00 0.00 0.00 0.00 0.00 0.00 0.01 0.01 0.03 0.02 0.02 0.03 0.05 0.08 0.07 0.04 0.03 0.09 0.34 0.52 0.34 0.29 0.24 0.28 0.07 0.05 0.09 0.15 0.25 0.32 0.38 0.54 0.50 0.45
0.00 0.00 0.00 0.00 0.00 0.00 0.01 0.01 0.01 0.01 0.00 0.00 0.00 0.00 0.00 0.00 0.01 0.02 0.02 0.02 0.04 0.04 0.02 0.03 0.02 0.01 0.07 0.27 0.57 0.52 0.39 0.29 0.33 0.28 0.07 0.07 0.09 0.16 0.21 0.28 0.26 0.20 0.20
0.00 0.00 0.00 0.00 0.00 0.00 0.01 0.03 0.01 0.01 0.01 0.01 0.00 0.00 0.00 0.00 0.01 0.01 0.01 0.02 0.04 0.03 0.02 0.01 0.01 0.03 0.11 0.23 0.50 0.65 0.39 0.40 0.33 0.39 0.24 0.16 0.16 0.16 0.24 0.31 0.27 0.21 0.14
0.00 0.00 0.00 0.00 0.00 0.00 0.01 0.05 0.02 0.01 0.01 0.02 0.00 0.00 0.00 0.00 0.00 0.01 0.02 0.02 0.01 0.01 0.01 0.02 0.04 0.12 0.25 0.30 0.75 0.91 0.69 0.37 0.37 0.31 0.28 0.27 0.35 0.31 0.37 0.34 0.37 0.34 0.28
0.00 0.00 0.00 0.00 0.00 0.01 0.00 0.02 0.07 0.04 0.03 0.08 0.05 0.01 0.00 0.00 0.00 0.01 0.02 0.00 0.00 0.00 0.01 0.03 0.08 0.22 0.37 0.45 0.68 0.80 0.65 0.42 0.28 0.37 0.24 0.16 0.21 0.31 0.38 0.50 0.31 0.30 0.32
0.00 0.00 0.00 0.00 0.00 0.02 0.01 0.09 0.16 0.13 0.15 0.15 0.06 0.01 0.01 0.01 0.00 0.01 0.02 0.00 0.00 0.01 0.00 0.01 0.04 0.19 0.34 0.52 0.40 0.50 0.23 0.22 0.14 0.25 0.28 0.15 0.13 0.16 0.18 0.27 0.36 0.22 0.21
0.00 0.00 0.00 0.01 0.00 0.05 0.18 0.31 0.18 0.04 0.01 0.01 0.01 0.03 0.05 0.06 0.03 0.02 0.02 0.00 0.00 0.00 0.00 0.00 0.01 0.07 0.29 0.43 0.49 0.45 0.10 0.04 0.05 0.15 0.20 0.16 0.13 0.11 0.11 0.14 0.18 0.21 0.16
0.00 0.00 0.00 0.03 0.13 0.13 0.19 0.48 0.47 0.34 0.16 0.08 0.04 0.03 0.06 0.13 0.17 0.09 0.07 0.05 0.04 0.04 0.04 0.01 0.01 0.04 0.17 0.29 0.35 0.34 0.32 0.16 0.14 0.14 0.19 0.20 0.17 0.09 0.07 0.10 0.17 0.20 0.16
0.03 0.04 0.01 0.00 0.04 0.17 0.17 0.30 0.55 0.85 1.07 0.92 0.65 0.22 0.10 0.26 0.24 0.19 0.20 0.21 0.22 0.23 0.12 0.04 0.01 0.01 0.04 0.16 0.30 0.25 0.26 0.22 0.20 0.23 0.25 0.23 0.22 0.18 0.15 0.14 0.11 0.16 0.28

GFSSE_prec_precacc24_132.txt.gz
Total_Precipitation_Accumulation
0.00 0.00 0.00 0.00 0.00 0.00 0.00 0.00 0.00 0.00 0.00 0.00 0.00 0.00 0.00 0.00 0.00 0.00 0.00 0.00 0.00 0.00 0.00 0.00 0.00 0.00 0.02 0.05 0.12 0.06 0.07 0.05 0.11 0.44 0.31 0.27 0.12 0.06 0.05 0.09 0.22 0.14 0.25
0.00 0.00 0.00 0.00 0.00 0.00 0.00 0.00 0.00 0.00 0.00 0.00 0.00 0.00 0.00 0.00 0.00 0.00 0.00 0.00 0.00 0.00 0.00 0.00 0.01 0.01 0.02 0.05 0.05 0.01 0.00 0.00 0.05 0.34 0.32 0.26 0.20 0.09 0.08 0.16 0.38 0.15 0.25
0.00 0.00 0.00 0.00 0.00 0.00 0.00 0.00 0.00 0.00 0.00 0.00 0.00 0.00 0.00 0.00 0.00 0.00 0.00 0.00 0.00 0.01 0.06 0.01 0.00 0.01 0.00 0.00 0.02 0.04 0.02 0.00 0.04 0.17 0.25 0.13 0.11 0.25 0.11 0.20 0.29 0.30 0.19
0.00 0.00 0.00 0.00 0.00 0.00 0.00 0.00 0.00 0.00 0.00 0.00 0.00 0.00 0.00 0.00 0.00 0.00 0.00 0.00 0.00 0.00 0.01 0.02 0.00 0.00 0.00 0.00 0.01 0.05 0.02 0.00 0.01 0.10 0.31 0.87 0.42 0.31 0.21 0.26 0.37 0.36 0.37
0.00 0.00 0.00 0.00 0.00 0.00 0.00 0.00 0.00 0.00 0.00 0.00 0.00 0.00 0.00 0.00 0.00 0.00 0.00 0.00 0.00 0.00 0.00 0.00 0.00 0.00 0.00 0.00 0.00 0.01 0.02 0.00 0.00 0.07 0.62 1.71 0.74 0.33 0.31 0.31 0.41 0.33 0.53
0.00 0.00 0.00 0.00 0.00 0.00 0.00 0.00 0.00 0.00 0.00 0.00 0.00 0.00 0.00 0.00 0.00 0.00 0.00 0.00 0.02 0.02 0.01 0.01 0.03 0.00 0.00 0.00 0.00 0.00 0.03 0.05 0.12 0.22 0.22 0.73 0.92 0.76 0.64 0.59 0.54 0.51 0.62
0.00 0.00 0.00 0.00 0.00 0.00 0.00 0.00 0.00 0.00 0.00 0.00 0.00 0.00 0.00 0.00 0.00 0.00 0.00 0.00 0.00 0.02 0.00 0.01 0.01 0.00 0.00 0.00 0.01 0.04 0.04 0.12 0.20 0.52 0.46 0.87 1.52 1.15 0.93 0.73 0.79 0.68 0.58
0.00 0.00 0.00 0.00 0.00 0.00 0.00 0.00 0.00 0.00 0.00 0.00 0.00 0.00 0.00 0.00 0.01 0.00 0.00 0.00 0.01 0.01 0.01 0.01 0.00 0.00 0.01 0.01 0.05 0.13 0.12 0.15 0.20 0.53 0.70 0.58 1.38 2.23 1.81 1.20 0.86 0.65 0.55
0.00 0.00 0.00 0.00 0.00 0.00 0.00 0.00 0.00 0.00 0.00 0.00 0.00 0.00 0.00 0.00 0.01 0.02 0.00 0.00 0.00 0.01 0.01 0.02 0.04 0.05 0.09 0.09 0.01 0.09 0.22 0.24 0.30 0.67 0.85 0.67 0.63 1.62 4.33 2.87 0.90 0.40 0.27
0.00 0.00 0.01 0.00 0.00 0.00 0.00 0.00 0.00 0.00 0.00 0.00 0.00 0.00 0.00 0.00 0.00 0.01 0.02 0.00 0.00 0.01 0.00 0.01 0.01 0.01 0.04 0.11 0.23 0.21 0.21 0.18 0.11 0.17 0.53 0.58 0.54 0.26 0.36 0.45 0.33 0.22 0.16
0.00 0.00 0.01 0.01 0.00 0.00 0.00 0.00 0.00 0.00 0.00 0.00 0.00 0.00 0.00 0.00 0.00 0.00 0.00 0.02 0.10 0.01 0.01 0.02 0.00 0.00 0.03 0.04 0.05 0.04 0.12 0.22 0.11 0.16 0.39 0.36 0.51 0.48 0.48 0.20 0.14 0.13 0.13
0.00 0.00 0.00 0.01 0.01 0.00 0.00 0.00 0.00 0.00 0.00 0.00 0.00 0.00 0.00 0.00 0.00 0.00 0.00 0.02 0.08 0.08 0.00 0.00 0.00 0.00 0.01 0.00 0.00 0.01 0.05 0.16 0.09 0.21 0.65 0.45 0.53 0.75 0.44 0.29 0.20 0.19 0.21
0.00 0.00 0.00 0.00 0.00 0.01 0.00 0.00 0.00 0.00 0.00 0.00 0.00 0.00 0.00 0.00 0.02 0.01 0.05 0.04 0.02 0.02 0.00 0.00 0.00 0.00 0.00 0.00 0.03 0.01 0.02 0.06 0.10 0.11 0.32 0.31 0.46 0.80 0.58 0.24 0.18 0.18 0.20
0.00 0.00 0.00 0.00 0.00 0.03 0.01 0.00 0.00 0.00 0.00 0.00 0.00 0.00 0.00 0.00 0.02 0.02 0.03 0.10 0.03 0.02 0.03 0.00 0.00 0.00 0.00 0.01 0.03 0.02 0.02 0.07 0.15 0.13 0.20 0.29 0.45 0.63 0.59 0.37 0.27 0.27 0.29
0.00 0.00 0.00 0.00 0.01 0.02 0.01 0.00 0.00 0.00 0.00 0.00 0.00 0.00 0.00 0.00 0.01 0.02 0.03 0.07 0.05 0.06 0.03 0.01 0.01 0.01 0.01 0.01 0.01 0.00 0.01 0.06 0.09 0.14 0.29 0.50 0.51 0.51 0.75 0.79 0.73 0.76 0.48
0.00 0.00 0.00 0.00 0.00 0.04 0.15 0.01 0.01 0.00 0.00 0.00 0.00 0.00 0.00 0.00 0.00 0.01 0.04 0.03 0.05 0.05 0.05 0.02 0.01 0.02 0.01 0.01 0.02 0.01 0.01 0.07 0.06 0.10 0.20 0.39 0.42 0.50 0.61 0.81 0.92 0.84 0.44
0.00 0.00 0.00 0.00 0.00 0.00 0.06 0.09 0.01 0.02 0.00 0.00 0.00 0.00 0.00 0.00 0.00 0.01 0.00 0.02 0.02 0.02 0.04 0.03 0.03 0.02 0.02 0.03 0.03 0.03 0.04 0.14 0.10 0.05 0.10 0.18 0.24 0.35 0.48 0.65 0.69 0.58 0.35
0.00 0.00 0.00 0.00 0.00 0.00 0.02 0.08 0.03 0.00 0.00 0.00 0.00 0.00 0.00 0.00 0.00 0.01 0.00 0.00 0.01 0.02 0.03 0.03 0.02 0.01 0.02 0.05 0.06 0.08 0.10 0.18 0.26 0.06 0.05 0.11 0.16 0.26 0.32 0.37 0.53 0.50 0.45
0.00 0.00 0.00 0.00 0.00 0.00 0.06 0.08 0.04 0.04 0.00 0.00 0.00 0.00 0.00 0.00 0.00 0.01 0.00 0.00 0.01 0.01 0.01 0.03 0.02 0.01 0.01 0.03 0.08 0.14 0.20 0.25 0.33 0.28 0.07 0.07 0.10 0.18 0.24 0.28 0.26 0.20 0.19
0.00 0.00 0.00 0.00 0.00 0.00 0.03 0.16 0.17 0.16 0.09 0.02 0.00 0.00 0.00 0.00 0.00 0.00 0.00 0.00 0.01 0.02 0.01 0.01 0.01 0.01 0.01 0.02 0.06 0.19 0.27 0.40 0.33 0.40 0.24 0.16 0.16 0.16 0.25 0.34 0.28 0.21 0.14
0.00 0.00 0.00 0.00 0.00 0.00 0.04 0.16 0.16 0.13 0.10 0.10 0.00 0.00 0.00 0.00 0.00 0.00 0.00 0.00 0.00 0.01 0.02 0.02 0.04 0.04 0.05 0.05 0.27 0.40 0.55 0.35 0.37 0.32 0.28 0.27 0.35 0.31 0.37 0.35 0.39 0.34 0.28
0.00 0.00 0.00 0.00 0.00 0.01 0.00 0.05 0.18 0.21 0.16 0.11 0.06 0.01 0.00 0.00 0.00 0.00 0.00 0.00 0.00 0.01 0.01 0.03 0.05 0.06 0.09 0.13 0.32 0.61 0.57 0.40 0.27 0.36 0.24 0.16 0.21 0.31 0.38 0.49 0.31 0.31 0.34
0.00 0.00 0.00 0.00 0.00 0.02 0.01 0.15 0.29 0.28 0.32 0.29 0.15 0.01 0.01 0.01 0.00 0.00 0.00 0.00 0.00 0.01 0.01 0.01 0.02 0.03 0.05 0.14 0.25 0.45 0.22 0.21 0.12 0.23 0.27 0.15 0.13 0.16 0.18 0.27 0.36 0.22 0.23
0.00 0.00 0.00 0.01 0.00 0.05 0.18 0.33 0.31 0.24 0.24 0.10 0.05 0.04 0.05 0.06 0.03 0.01 0.01 0.00 0.00 0.00 0.00 0.01 0.01 0.02 0.04 0.19 0.36 0.39 0.10 0.04 0.04 0.14 0.19 0.16 0.13 0.11 0.12 0.14 0.18 0.21 0.17
0.00 0.00 0.00 0.03 0.13 0.13 0.19 0.48 0.54 0.49 0.25 0.14 0.10 0.06 0.06 0.13 0.17 0.09 0.06 0.05 0.04 0.05 0.04 0.01 0.01 0.02 0.04 0.10 0.22 0.26 0.26 0.14 0.13 0.13 0.19 0.21 0.18 0.09 0.07 0.10 0.17 0.21 0.16
0.04 0.04 0.01 0.01 0.05 0.17 0.17 0.31 0.59 0.96 1.33 1.48 1.11 0.57 0.29 0.37 0.31 0.21 0.23 0.23 0.23 0.23 0.13 0.05 0.03 0.01 0.03 0.08 0.19 0.15 0.19 0.18 0.18 0.22 0.25 0.23 0.23 0.19 0.16 0.14 0.11 0.16 0.28

GFSSE_prec_precacc24_135.txt.gz
Total_Precipitation_Accumulation
0.00 0.00 0.00 0.00 0.00 0.00 0.00 0.00 0.00 0.00 0.00 0.00 0.00 0.00 0.00 0.00 0.00 0.00 0.00 0.00 0.00 0.00 0.00 0.00 0.00 0.00 0.01 0.05 0.10 0.05 0.07 0.07 0.09 0.40 0.29 0.29 0.17 0.08 0.06 0.11 0.27 0.17 0.34
0.00 0.00 0.00 0.00 0.00 0.00 0.00 0.00 0.00 0.00 0.00 0.00 0.00 0.00 0.00 0.00 0.00 0.00 0.00 0.00 0.00 0.00 0.00 0.00 0.00 0.01 0.03 0.06 0.05 0.01 0.01 0.01 0.05 0.34 0.32 0.28 0.21 0.08 0.08 0.18 0.45 0.21 0.35
0.00 0.00 0.00 0.00 0.00 0.00 0.00 0.00 0.00 0.00 0.00 0.00 0.00 0.00 0.00 0.00 0.00 0.00 0.00 0.00 0.00 0.00 0.00 0.00 0.00 0.01 0.01 0.00 0.02 0.04 0.02 0.00 0.04 0.18 0.29 0.19 0.13 0.24 0.17 0.28 0.31 0.44 0.29
0.00 0.00 0.00 0.00 0.00 0.00 0.00 0.00 0.00 0.00 0.00 0.00 0.00 0.00 0.00 0.00 0.00 0.00 0.00 0.00 0.00 0.00 0.00 0.00 0.00 0.00 0.00 0.00 0.01 0.05 0.02 0.00 0.01 0.10 0.36 0.88 0.44 0.26 0.23 0.29 0.38 0.39 0.44
0.00 0.00 0.00 0.00 0.00 0.00 0.00 0.00 0.00 0.00 0.00 0.00 0.00 0.00 0.00 0.00 0.00 0.00 0.00 0.00 0.00 0.00 0.00 0.00 0.00 0.00 0.00 0.00 0.00 0.01 0.02 0.00 0.00 0.07 0.62 1.50 0.83 0.32 0.32 0.31 0.41 0.38 0.57
0.00 0.00 0.00 0.00 0.00 0.00 0.00 0.00 0.00 0.00 0.00 0.00 0.00 0.00 0.00 0.00 0.00 0.00 0.00 0.00 0.02 0.02 0.01 0.01 0.02 0.00 0.00 0.00 0.00 0.00 0.03 0.04 0.09 0.21 0.25 0.46 0.93 0.66 0.61 0.60 0.54 0.52 0.63
0.00 0.00 0.00 0.00 0.00 0.00 0.00 0.00 0.00 0.00 0.00 0.00 0.00 0.00 0.00 0.00 0.00 0.00 0.00 0.00 0.00 0.02 0.00 0.01 0.01 0.00 0.00 0.00 0.01 0.04 0.02 0.06 0.09 0.44 0.49 0.62 1.42 1.12 0.90 0.73 0.79 0.68 0.57
0.00 0.00 0.00 0.00 0.00 0.00 0.00 0.00 0.00 0.00 0.00 0.00 0.00 0.00 0.00 0.00 0.00 0.00 0.00 0.00 0.01 0.01 0.01 0.01 0.00 0.00 0.00 0.00 0.01 0.09 0.07 0.02 0.08 0.42 0.68 0.44 1.19 2.22 1.80 1.20 0.86 0.65 0.55
0.00 0.00 0.00 0.00 0.00 0.00 0.00 0.00 0.00 0.00 0.00 0.00 0.00 0.00 0.00 0.00 0.00 0.00 0.00 0.00 0.00 0.01 0.01 0.00 0.00 0.00 0.00 0.00 0.00 0.02 0.01 0.02 0.16 0.50 0.62 0.44 0.54 1.63 4.34 2.87 0.90 0.40 0.27
0.00 0.00 0.01 0.00 0.00 0.00 0.00 0.00 0.00 0.00 0.00 0.00 0.00 0.00 0.00 0.00 0.00 0.00 0.00 0.00 0.00 0.01 0.00 0.00 0.00 0.00 0.02 0.11 0.22 0.18 0.10 0.02 0.07 0.16 0.31 0.47 0.51 0.26 0.36 0.45 0.33 0.21 0.15
0.00 0.00 0.01 0.01 0.00 0.00 0.00 0.00 0.00 0.00 0.00 0.00 0.00 0.00 0.00 0.00 0.00 0.00 0.00 0.02 0.08 0.01 0.00 0.00 0.00 0.00 0.03 0.04 0.05 0.04 0.09 0.17 0.05 0.16 0.41 0.30 0.50 0.48 0.48 0.20 0.14 0.13 0.13
0.00 0.00 0.00 0.01 0.01 0.00 0.00 0.00 0.00 0.00 0.00 0.00 0.00 0.00 0.00 0.00 0.00 0.00 0.00 0.02 0.08 0.08 0.00 0.00 0.00 0.00 0.01 0.00 0.00 0.01 0.05 0.16 0.11 0.17 0.63 0.38 0.50 0.75 0.44 0.29 0.20 0.19 0.20
0.00 0.00 0.00 0.00 0.03 0.02 0.00 0.00 0.00 0.00 0.00 0.00 0.00 0.00 0.00 0.00 0.02 0.01 0.03 0.01 0.01 0.01 0.00 0.00 0.00 0.00 0.00 0.00 0.03 0.01 0.01 0.06 0.10 0.08 0.31 0.26 0.42 0.79 0.58 0.24 0.18 0.18 0.20
0.00 0.00 0.00 0.02 0.09 0.25 0.18 0.04 0.00 0.00 0.00 0.00 0.00 0.00 0.00 0.00 0.02 0.01 0.03 0.02 0.02 0.02 0.01 0.00 0.00 0.00 0.00 0.01 0.03 0.02 0.02 0.05 0.09 0.10 0.20 0.26 0.42 0.63 0.59 0.37 0.27 0.27 0.29
0.00 0.00 0.00 0.00 0.04 0.14 0.25 0.31 0.22 0.01 0.00 0.00 0.00 0.00 0.00 0.00 0.01 0.01 0.02 0.03 0.01 0.02 0.01 0.01 0.01 0.01 0.01 0.01 0.01 0.00 0.02 0.05 0.04 0.08 0.25 0.48 0.50 0.51 0.75 0.79 0.73 0.76 0.48
0.00 0.00 0.00 0.00 0.00 0.05 0.21 0.09 0.17 0.15 0.06 0.00 0.00 0.00 0.00 0.00 0.00 0.01 0.01 0.01 0.02 0.03 0.03 0.02 0.01 0.02 0.01 0.01 0.01 0.00 0.00 0.00 0.01 0.06 0.18 0.38 0.42 0.50 0.62 0.82 0.92 0.84 0.43
0.00 0.00 0.00 0.00 0.00 0.00 0.07 0.13 0.10 0.22 0.25 0.10 0.01 0.00 0.00 0.00 0.00 0.01 0.00 0.01 0.01 0.01 0.03 0.02 0.03 0.02 0.02 0.02 0.02 0.01 0.00 0.00 0.01 0.03 0.10 0.18 0.24 0.35 0.48 0.65 0.69 0.57 0.34
0.00 0.00 0.00 0.00 0.00 0.00 0.04 0.18 0.12 0.16 0.29 0.19 0.08 0.00 0.00 0.00 0.00 0.01 0.01 0.00 0.01 0.02 0.01 0.01 0.01 0.01 0.01 0.02 0.02 0.03 0.02 0.01 0.03 0.04 0.05 0.11 0.16 0.26 0.32 0.37 0.52 0.50 0.45
0.00 0.00 0.00 0.00 0.00 0.00 0.06 0.11 0.12 0.12 0.20 0.15 0.10 0.03 0.01 0.00 0.00 0.01 0.01 0.00 0.00 0.01 0.01 0.00 0.01 0.00 0.01 0.02 0.02 0.05 0.04 0.03 0.15 0.26 0.07 0.07 0.10 0.18 0.24 0.28 0.25 0.20 0.19
0.00 0.00 0.00 0.00 0.00 0.00 0.03 0.16 0.20 0.30 0.27 0.25 0.25 0.17 0.10 0.01 0.01 0.00 0.00 0.00 0.01 0.00 0.01 0.01 0.00 0.01 0.01 0.02 0.03 0.05 0.04 0.04 0.16 0.39 0.24 0.16 0.16 0.16 0.25 0.34 0.27 0.20 0.14
0.00 0.00 0.00 0.00 0.00 0.00 0.04 0.16 0.16 0.15 0.16 0.17 0.20 0.25 0.21 0.07 0.00 0.00 0.00 0.00 0.00 0.01 0.01 0.02 0.03 0.03 0.04 0.04 0.10 0.11 0.06 0.05 0.15 0.29 0.27 0.27 0.34 0.31 0.37 0.34 0.39 0.34 0.28
0.00 0.00 0.00 0.00 0.00 0.01 0.00 0.05 0.18 0.21 0.20 0.16 0.13 0.21 0.28 0.15 0.03 0.00 0.00 0.00 0.00 0.00 0.01 0.03 0.04 0.06 0.08 0.08 0.11 0.12 0.15 0.14 0.17 0.34 0.24 0.16 0.20 0.31 0.38 0.49 0.31 0.31 0.34
0.00 0.00 0.00 0.00 0.00 0.02 0.01 0.15 0.29 0.28 0.33 0.33 0.25 0.10 0.06 0.14 0.03 0.01 0.00 0.00 0.00 0.01 0.01 0.01 0.02 0.03 0.04 0.05 0.06 0.08 0.09 0.11 0.09 0.22 0.26 0.15 0.13 0.16 0.18 0.27 0.36 0.22 0.23
0.00 0.00 0.00 0.00 0.00 0.05 0.18 0.33 0.31 0.24 0.25 0.11 0.06 0.09 0.12 0.23 0.12 0.02 0.01 0.00 0.00 0.00 0.00 0.01 0.01 0.02 0.03 0.04 0.08 0.10 0.06 0.04 0.04 0.13 0.18 0.16 0.13 0.11 0.12 0.14 0.18 0.21 0.17
0.00 0.00 0.00 0.01 0.10 0.13 0.19 0.48 0.54 0.50 0.26 0.15 0.16 0.27 0.30 0.31 0.39 0.18 0.08 0.05 0.04 0.05 0.04 0.01 0.01 0.02 0.03 0.04 0.03 0.11 0.20 0.11 0.08 0.10 0.17 0.20 0.18 0.09 0.07 0.10 0.17 0.21 0.16
0.04 0.04 0.01 0.01 0.02 0.12 0.16 0.31 0.60 0.97 1.33 1.50 1.21 0.79 0.60 0.67 0.66 0.51 0.30 0.25 0.24 0.23 0.14 0.05 0.03 0.02 0.06 0.05 0.06 0.07 0.13 0.11 0.12 0.18 0.21 0.19 0.22 0.19 0.16 0.14 0.11 0.16 0.28

GFSSE_prec_precacc24_138.txt.gz
Total_Precipitation_Accumulation
0.00 0.00 0.00 0.00 0.00 0.00 0.00 0.00 0.00 0.00 0.00 0.00 0.00 0.00 0.00 0.00 0.00 0.00 0.00 0.00 0.00 0.00 0.00 0.00 0.00 0.00 0.01 0.04 0.08 0.06 0.07 0.07 0.08 0.36 0.25 0.28 0.17 0.08 0.07 0.12 0.28 0.18 0.43
0.00 0.00 0.00 0.00 0.00 0.00 0.00 0.00 0.00 0.00 0.00 0.00 0.00 0.00 0.00 0.00 0.00 0.00 0.00 0.00 0.00 0.00 0.00 0.00 0.00 0.01 0.03 0.04 0.05 0.04 0.02 0.01 0.04 0.31 0.32 0.28 0.23 0.09 0.09 0.20 0.46 0.25 0.46
0.00 0.00 0.00 0.00 0.00 0.00 0.00 0.00 0.00 0.00 0.00 0.00 0.00 0.00 0.00 0.00 0.00 0.00 0.00 0.00 0.00 0.00 0.00 0.00 0.00 0.02 0.02 0.00 0.01 0.02 0.02 0.00 0.04 0.18 0.29 0.19 0.13 0.26 0.19 0.33 0.31 0.49 0.38
0.00 0.00 0.00 0.00 0.00 0.00 0.00 0.00 0.00 0.00 0.00 0.00 0.00 0.00 0.00 0.00 0.00 0.00 0.00 0.00 0.00 0.00 0.00 0.00 0.00 0.00 0.00 0.00 0.00 0.00 0.00 0.00 0.01 0.10 0.34 0.71 0.43 0.29 0.26 0.31 0.39 0.41 0.46
0.00 0.00 0.00 0.00 0.00 0.00 0.00 0.00 0.00 0.00 0.00 0.00 0.00 0.00 0.00 0.00 0.00 0.00 0.00 0.00 0.00 0.00 0.00 0.00 0.00 0.00 0.00 0.00 0.00 0.00 0.00 0.00 0.00 0.07 0.61 1.41 0.79 0.33 0.32 0.32 0.42 0.39 0.56
0.00 0.00 0.00 0.00 0.00 0.00 0.00 0.00 0.00 0.00 0.00 0.00 0.00 0.00 0.00 0.00 0.00 0.00 0.00 0.00 0.02 0.01 0.01 0.01 0.00 0.00 0.00 0.00 0.00 0.00 0.00 0.00 0.02 0.20 0.25 0.40 0.69 0.58 0.60 0.60 0.53 0.50 0.61
0.00 0.00 0.00 0.00 0.00 0.00 0.00 0.00 0.00 0.00 0.00 0.00 0.00 0.00 0.00 0.00 0.00 0.00 0.00 0.00 0.00 0.01 0.00 0.01 0.00 0.00 0.00 0.00 0.00 0.00 0.00 0.00 0.07 0.26 0.40 0.44 0.98 0.97 0.90 0.73 0.79 0.68 0.57
0.00 0.00 0.00 0.01 0.01 0.00 0.00 0.00 0.00 0.00 0.00 0.00 0.00 0.00 0.00 0.00 0.00 0.00 0.00 0.00 0.01 0.01 0.01 0.01 0.00 0.00 0.00 0.00 0.00 0.00 0.00 0.00 0.08 0.32 0.41 0.38 0.80 2.02 1.79 1.20 0.86 0.65 0.55
0.00 0.00 0.00 0.00 0.00 0.00 0.00 0.00 0.00 0.00 0.00 0.00 0.00 0.00 0.00 0.00 0.00 0.00 0.00 0.00 0.00 0.01 0.01 0.00 0.00 0.00 0.00 0.00 0.00 0.00 0.01 0.01 0.14 0.33 0.34 0.33 0.35 1.35 4.33 2.87 0.90 0.40 0.27
0.00 0.00 0.01 0.00 0.00 0.00 0.00 0.00 0.00 0.00 0.00 0.00 0.00 0.00 0.00 0.00 0.00 0.00 0.00 0.00 0.00 0.01 0.00 0.00 0.00 0.00 0.02 0.07 0.07 0.04 0.05 0.01 0.07 0.14 0.28 0.36 0.36 0.22 0.35 0.45 0.33 0.21 0.15
0.01 0.01 0.01 0.02 0.00 0.00 0.01 0.00 0.00 0.00 0.00 0.00 0.00 0.00 0.00 0.00 0.00 0.00 0.00 0.01 0.04 0.01 0.00 0.00 0.00 0.00 0.03 0.02 0.01 0.00 0.04 0.11 0.04 0.16 0.40 0.23 0.31 0.38 0.47 0.20 0.14 0.13 0.12
0.00 0.00 0.00 0.01 0.02 0.00 0.01 0.01 0.00 0.00 0.00 0.00 0.00 0.00 0.00 0.00 0.00 0.00 0.00 0.02 0.07 0.08 0.00 0.00 0.00 0.00 0.01 0.00 0.00 0.00 0.05 0.15 0.12 0.18 0.61 0.26 0.33 0.70 0.44 0.29 0.20 0.18 0.20
0.00 0.00 0.00 0.01 0.04 0.05 0.02 0.02 0.01 0.02 0.00 0.00 0.00 0.00 0.00 0.00 0.02 0.01 0.03 0.01 0.01 0.01 0.00 0.00 0.00 0.00 0.00 0.00 0.03 0.01 0.01 0.05 0.10 0.08 0.28 0.18 0.31 0.73 0.57 0.24 0.18 0.17 0.20
0.00 0.00 0.00 0.02 0.09 0.27 0.27 0.13 0.07 0.05 0.03 0.00 0.00 0.00 0.00 0.00 0.02 0.01 0.03 0.02 0.02 0.02 0.01 0.00 0.00 0.00 0.00 0.00 0.03 0.02 0.02 0.05 0.09 0.11 0.16 0.22 0.34 0.60 0.58 0.37 0.27 0.27 0.29
0.00 0.00 0.00 0.00 0.04 0.14 0.26 0.40 0.35 0.09 0.10 0.07 0.01 0.00 0.00 0.00 0.01 0.01 0.02 0.02 0.01 0.02 0.01 0.01 0.01 0.01 0.00 0.00 0.01 0.00 0.02 0.05 0.04 0.05 0.15 0.38 0.41 0.46 0.75 0.79 0.73 0.76 0.48
0.00 0.00 0.00 0.00 0.00 0.05 0.21 0.10 0.26 0.32 0.26 0.19 0.09 0.03 0.00 0.00 0.00 0.01 0.01 0.01 0.01 0.02 0.02 0.02 0.01 0.02 0.01 0.01 0.01 0.00 0.01 0.01 0.00 0.02 0.06 0.26 0.32 0.42 0.63 0.85 0.94 0.87 0.44
0.00 0.00 0.00 0.00 0.00 0.00 0.07 0.13 0.11 0.30 0.48 0.31 0.17 0.14 0.06 0.02 0.00 0.01 0.00 0.01 0.01 0.01 0.02 0.02 0.03 0.02 0.02 0.02 0.02 0.01 0.00 0.01 0.00 0.00 0.02 0.08 0.18 0.32 0.48 0.65 0.71 0.61 0.37
0.00 0.00 0.00 0.00 0.00 0.00 0.04 0.18 0.12 0.16 0.35 0.32 0.29 0.15 0.11 0.04 0.02 0.01 0.01 0.00 0.01 0.02 0.01 0.01 0.01 0.01 0.01 0.03 0.03 0.03 0.02 0.00 0.00 0.00 0.01 0.07 0.14 0.25 0.32 0.37 0.53 0.51 0.46
0.00 0.00 0.00 0.00 0.00 0.00 0.06 0.11 0.12 0.12 0.22 0.22 0.18 0.31 0.33 0.24 0.13 0.04 0.01 0.00 0.00 0.01 0.01 0.00 0.01 0.00 0.01 0.02 0.03 0.04 0.04 0.01 0.02 0.02 0.03 0.06 0.10 0.18 0.24 0.28 0.25 0.20 0.19
0.00 0.00 0.00 0.00 0.00 0.00 0.03 0.15 0.20 0.30 0.27 0.26 0.31 0.38 0.45 0.41 0.36 0.16 0.04 0.00 0.00 0.00 0.01 0.01 0.00 0.00 0.00 0.01 0.02 0.04 0.04 0.02 0.02 0.03 0.08 0.15 0.16 0.16 0.25 0.34 0.27 0.20 0.13
0.00 0.00 0.00 0.00 0.00 0.00 0.04 0.14 0.16 0.15 0.16 0.17 0.20 0.32 0.47 0.57 0.54 0.34 0.15 0.04 0.01 0.01 0.01 0.01 0.02 0.02 0.03 0.03 0.08 0.08 0.05 0.02 0.02 0.02 0.12 0.24 0.34 0.31 0.37 0.34 0.38 0.34 0.28
0.00 0.00 0.00 0.00 0.00 0.01 0.00 0.04 0.14 0.19 0.20 0.16 0.13 0.22 0.35 0.30 0.41 0.54 0.35 0.08 0.02 0.02 0.01 0.02 0.04 0.04 0.06 0.06 0.08 0.07 0.09 0.05 0.02 0.02 0.08 0.15 0.20 0.31 0.38 0.49 0.31 0.31 0.34
0.00 0.00 0.00 0.00 0.00 0.02 0.01 0.09 0.21 0.22 0.30 0.32 0.25 0.10 0.07 0.20 0.20 0.32 0.36 0.10 0.03 0.02 0.01 0.01 0.01 0.02 0.03 0.05 0.05 0.06 0.04 0.03 0.01 0.02 0.07 0.13 0.13 0.16 0.18 0.27 0.36 0.22 0.23
0.00 0.00 0.00 0.00 0.00 0.04 0.17 0.33 0.30 0.24 0.25 0.11 0.06 0.10 0.12 0.26 0.27 0.26 0.25 0.16 0.09 0.03 0.01 0.00 0.01 0.02 0.02 0.03 0.06 0.05 0.02 0.01 0.01 0.02 0.07 0.14 0.12 0.11 0.12 0.14 0.18 0.21 0.17
0.00 0.00 0.00 0.00 0.00 0.02 0.11 0.44 0.53 0.49 0.26 0.15 0.16 0.27 0.30 0.32 0.44 0.40 0.40 0.38 0.30 0.15 0.08 0.03 0.01 0.02 0.03 0.03 0.02 0.02 0.04 0.05 0.05 0.07 0.10 0.16 0.16 0.09 0.07 0.10 0.17 0.21 0.16
0.04 0.04 0.01 0.01 0.00 0.01 0.05 0.17 0.48 0.90 1.32 1.49 1.21 0.79 0.59 0.67 0.69 0.69 0.62 0.65 0.98 0.78 0.25 0.09 0.05 0.03 0.06 0.05 0.05 0.03 0.02 0.03 0.07 0.15 0.16 0.14 0.17 0.15 0.15 0.14 0.11 0.16 0.28

GFSSE_prec_precacc24_141.txt.gz
Total_Precipitation_Accumulation
0.00 0.00 0.00 0.00 0.00 0.00 0.00 0.00 0.00 0.00 0.00 0.00 0.00 0.00 0.00 0.00 0.00 0.00 0.00 0.00 0.00 0.00 0.00 0.00 0.00 0.00 0.00 0.01 0.02 0.03 0.04 0.05 0.08 0.36 0.22 0.22 0.14 0.08 0.08 0.13 0.31 0.23 0.51
0.00 0.00 0.00 0.00 0.00 0.00 0.00 0.00 0.00 0.00 0.00 0.00 0.00 0.00 0.00 0.00 0.00 0.00 0.00 0.00 0.00 0.00 0.00 0.00 0.00 0.00 0.01 0.03 0.02 0.03 0.02 0.01 0.04 0.31 0.31 0.26 0.23 0.12 0.17 0.23 0.50 0.29 0.48
0.00 0.00 0.00 0.00 0.00 0.00 0.00 0.00 0.00 0.00 0.00 0.00 0.00 0.00 0.00 0.00 0.00 0.00 0.00 0.00 0.00 0.00 0.00 0.00 0.00 0.02 0.01 0.01 0.00 0.01 0.02 0.00 0.03 0.17 0.27 0.19 0.12 0.25 0.23 0.35 0.31 0.50 0.39
0.00 0.00 0.00 0.00 0.00 0.00 0.00 0.00 0.00 0.00 0.00 0.00 0.00 0.00 0.00 0.00 0.00 0.00 0.00 0.00 0.00 0.00 0.00 0.00 0.00 0.00 0.00 0.00 0.00 0.00 0.00 0.00 0.01 0.09 0.30 0.56 0.39 0.28 0.28 0.31 0.40 0.41 0.45
0.00 0.00 0.00 0.00 0.00 0.00 0.00 0.00 0.00 0.00 0.00 0.00 0.00 0.00 0.00 0.00 0.00 0.00 0.00 0.00 0.00 0.00 0.00 0.00 0.00 0.00 0.00 0.00 0.00 0.00 0.00 0.00 0.00 0.07 0.61 1.36 0.68 0.32 0.30 0.31 0.41 0.38 0.55
0.00 0.00 0.00 0.01 0.00 0.00 0.00 0.00 0.00 0.00 0.00 0.00 0.00 0.00 0.00 0.00 0.00 0.00 0.00 0.00 0.00 0.00 0.00 0.00 0.00 0.00 0.00 0.00 0.00 0.00 0.00 0.00 0.02 0.19 0.25 0.34 0.50 0.56 0.57 0.59 0.53 0.50 0.61
0.00 0.00 0.00 0.00 0.00 0.00 0.00 0.00 0.00 0.00 0.00 0.00 0.00 0.00 0.00 0.00 0.00 0.00 0.00 0.00 0.00 0.00 0.00 0.00 0.00 0.00 0.00 0.00 0.00 0.00 0.00 0.00 0.07 0.16 0.21 0.30 0.66 0.84 0.82 0.73 0.78 0.67 0.58
0.00 0.00 0.00 0.01 0.01 0.00 0.00 0.00 0.00 0.00 0.00 0.00 0.00 0.00 0.00 0.00 0.00 0.00 0.00 0.00 0.01 0.01 0.00 0.00 0.00 0.00 0.00 0.00 0.00 0.00 0.00 0.00 0.07 0.31 0.34 0.37 0.51 1.32 1.63 1.15 0.86 0.66 0.58
0.00 0.00 0.00 0.00 0.00 0.00 0.00 0.01 0.00 0.00 0.00 0.00 0.00 0.00 0.00 0.00 0.00 0.00 0.00 0.00 0.00 0.01 0.00 0.00 0.00 0.00 0.00 0.00 0.00 0.00 0.00 0.01 0.14 0.33 0.27 0.26 0.21 0.85 3.87 2.78 0.92 0.41 0.29
0.00 0.00 0.01 0.00 0.00 0.00 0.00 0.00 0.01 0.01 0.00 0.00 0.00 0.00 0.00 0.00 0.00 0.00 0.00 0.00 0.00 0.01 0.00 0.00 0.00 0.00 0.00 0.00 0.00 0.00 0.01 0.00 0.07 0.14 0.28 0.30 0.20 0.17 0.25 0.39 0.32 0.21 0.15
0.01 0.01 0.01 0.02 0.01 0.00 0.01 0.00 0.00 0.06 0.03 0.01 0.00 0.00 0.00 0.00 0.00 0.00 0.00 0.01 0.04 0.01 0.00 0.00 0.00 0.00 0.00 0.00 0.01 0.00 0.03 0.03 0.04 0.16 0.40 0.23 0.14 0.19 0.38 0.18 0.13 0.13 0.12
0.00 0.00 0.00 0.01 0.02 0.00 0.01 0.02 0.01 0.03 0.06 0.04 0.00 0.00 0.00 0.00 0.00 0.00 0.00 0.01 0.07 0.08 0.00 0.00 0.00 0.00 0.00 0.00 0.00 0.00 0.04 0.07 0.11 0.19 0.60 0.26 0.28 0.51 0.36 0.27 0.20 0.18 0.19
0.00 0.00 0.00 0.01 0.04 0.05 0.02 0.02 0.03 0.04 0.02 0.03 0.03 0.01 0.01 0.00 0.02 0.01 0.03 0.00 0.01 0.01 0.00 0.00 0.00 0.00 0.00 0.00 0.03 0.01 0.01 0.05 0.10 0.09 0.24 0.18 0.30 0.64 0.53 0.24 0.18 0.17 0.21
0.00 0.00 0.00 0.02 0.09 0.27 0.27 0.13 0.09 0.11 0.07 0.01 0.00 0.06 0.03 0.02 0.02 0.01 0.03 0.02 0.02 0.02 0.01 0.00 0.00 0.00 0.00 0.00 0.03 0.02 0.02 0.05 0.09 0.12 0.15 0.18 0.33 0.56 0.58 0.38 0.27 0.27 0.29
0.00 0.00 0.00 0.00 0.04 0.14 0.26 0.40 0.35 0.12 0.16 0.15 0.06 0.05 0.05 0.04 0.03 0.03 0.02 0.02 0.01 0.02 0.01 0.01 0.01 0.01 0.00 0.00 0.00 0.00 0.02 0.05 0.04 0.05 0.09 0.25 0.28 0.39 0.77 0.80 0.73 0.76 0.48
0.00 0.00 0.00 0.00 0.00 0.05 0.21 0.10 0.26 0.32 0.28 0.26 0.17 0.09 0.11 0.09 0.04 0.02 0.02 0.02 0.01 0.02 0.02 0.02 0.01 0.02 0.01 0.01 0.01 0.00 0.02 0.01 0.00 0.03 0.04 0.16 0.20 0.26 0.53 0.90 0.99 0.91 0.46
0.00 0.00 0.00 0.00 0.00 0.00 0.07 0.13 0.11 0.30 0.48 0.33 0.22 0.20 0.14 0.16 0.08 0.04 0.02 0.02 0.01 0.01 0.02 0.02 0.03 0.02 0.02 0.02 0.02 0.01 0.00 0.01 0.00 0.00 0.02 0.04 0.08 0.15 0.28 0.56 0.72 0.64 0.44
0.00 0.00 0.00 0.00 0.00 0.00 0.04 0.18 0.12 0.16 0.35 0.32 0.30 0.17 0.15 0.09 0.11 0.09 0.04 0.02 0.02 0.02 0.01 0.01 0.01 0.01 0.01 0.03 0.03 0.03 0.02 0.00 0.00 0.00 0.01 0.02 0.05 0.15 0.21 0.31 0.51 0.52 0.47
0.00 0.00 0.00 0.00 0.00 0.00 0.06 0.11 0.12 0.12 0.22 0.22 0.18 0.32 0.37 0.32 0.31 0.24 0.13 0.08 0.06 0.01 0.01 0.00 0.01 0.00 0.01 0.02 0.03 0.04 0.03 0.01 0.02 0.01 0.01 0.01 0.01 0.07 0.20 0.26 0.24 0.20 0.19
0.00 0.00 0.00 0.00 0.00 0.00 0.03 0.15 0.20 0.30 0.27 0.26 0.31 0.38 0.47 0.46 0.54 0.53 0.41 0.21 0.11 0.03 0.02 0.01 0.00 0.00 0.00 0.01 0.01 0.03 0.03 0.02 0.02 0.02 0.02 0.02 0.03 0.11 0.24 0.33 0.27 0.20 0.12
0.00 0.00 0.00 0.00 0.00 0.00 0.04 0.14 0.16 0.15 0.16 0.17 0.20 0.32 0.48 0.59 0.64 0.85 0.84 0.67 0.33 0.13 0.05 0.03 0.04 0.03 0.02 0.02 0.05 0.05 0.04 0.02 0.01 0.01 0.01 0.01 0.06 0.26 0.36 0.34 0.38 0.34 0.27
0.00 0.00 0.00 0.00 0.00 0.01 0.00 0.04 0.13 0.18 0.17 0.10 0.09 0.22 0.35 0.30 0.43 0.67 0.85 0.94 1.06 0.46 0.18 0.10 0.05 0.04 0.05 0.05 0.05 0.03 0.04 0.02 0.01 0.01 0.01 0.01 0.04 0.25 0.37 0.49 0.31 0.31 0.34
0.00 0.00 0.00 0.00 0.00 0.02 0.01 0.09 0.20 0.18 0.19 0.20 0.21 0.10 0.07 0.20 0.20 0.36 0.67 0.71 0.64 0.66 0.47 0.18 0.09 0.05 0.03 0.04 0.04 0.04 0.02 0.02 0.01 0.01 0.00 0.01 0.02 0.09 0.16 0.27 0.36 0.22 0.22
0.00 0.00 0.00 0.00 0.00 0.04 0.15 0.32 0.29 0.23 0.25 0.11 0.06 0.10 0.12 0.26 0.28 0.28 0.34 0.38 0.67 0.81 0.40 0.22 0.17 0.12 0.08 0.03 0.06 0.03 0.01 0.00 0.00 0.01 0.01 0.01 0.02 0.07 0.11 0.14 0.18 0.20 0.16
0.00 0.00 0.00 0.00 0.00 0.01 0.09 0.41 0.48 0.42 0.22 0.15 0.16 0.27 0.30 0.31 0.44 0.41 0.42 0.44 0.51 0.56 0.46 0.38 0.24 0.13 0.08 0.06 0.02 0.03 0.03 0.03 0.02 0.02 0.02 0.03 0.05 0.04 0.06 0.10 0.17 0.20 0.16
0.04 0.04 0.01 0.01 0.00 0.00 0.02 0.13 0.43 0.82 1.24 1.41 1.17 0.77 0.58 0.64 0.67 0.69 0.63 0.67 1.08 1.19 0.85 0.50 0.61 0.38 0.19 0.14 0.10 0.06 0.03 0.02 0.02 0.03 0.05 0.08 0.10 0.10 0.11 0.12 0.10 0.16 0.28

GFSSE_prec_precacc24_144.txt.gz
Total_Precipitation_Accumulation
0.00 0.00 0.00 0.00 0.00 0.00 0.00 0.00 0.00 0.00 0.00 0.00 0.00 0.00 0.00 0.00 0.00 0.00 0.00 0.00 0.00 0.00 0.00 0.00 0.00 0.00 0.00 0.00 0.01 0.02 0.02 0.03 0.05 0.21 0.20 0.20 0.12 0.07 0.07 0.14 0.32 0.26 0.52
0.00 0.00 0.00 0.00 0.00 0.00 0.00 0.00 0.00 0.00 0.00 0.00 0.00 0.00 0.00 0.00 0.00 0.00 0.00 0.00 0.00 0.00 0.00 0.00 0.00 0.00 0.01 0.02 0.02 0.03 0.02 0.01 0.02 0.17 0.25 0.21 0.18 0.13 0.21 0.25 0.51 0.32 0.48
0.00 0.00 0.00 0.00 0.00 0.00 0.00 0.00 0.00 0.00 0.00 0.00 0.00 0.00 0.00 0.00 0.00 0.00 0.00 0.00 0.00 0.00 0.00 0.00 0.00 0.02 0.01 0.01 0.00 0.01 0.02 0.00 0.02 0.13 0.21 0.18 0.11 0.25 0.24 0.37 0.33 0.50 0.40
0.00 0.00 0.00 0.00 0.00 0.00 0.00 0.00 0.00 0.00 0.00 0.00 0.00 0.00 0.00 0.00 0.00 0.00 0.00 0.00 0.00 0.00 0.00 0.00 0.00 0.00 0.00 0.00 0.00 0.00 0.00 0.00 0.00 0.06 0.22 0.50 0.35 0.26 0.31 0.33 0.40 0.41 0.44
0.00 0.00 0.00 0.00 0.00 0.00 0.00 0.00 0.00 0.00 0.00 0.00 0.00 0.00 0.00 0.00 0.00 0.00 0.00 0.00 0.00 0.00 0.00 0.00 0.00 0.00 0.00 0.00 0.00 0.00 0.00 0.00 0.00 0.06 0.60 1.35 0.63 0.30 0.27 0.30 0.38 0.37 0.54
0.00 0.00 0.00 0.01 0.00 0.00 0.00 0.00 0.00 0.00 0.00 0.00 0.00 0.00 0.00 0.00 0.00 0.00 0.00 0.00 0.00 0.00 0.00 0.00 0.00 0.00 0.00 0.00 0.00 0.00 0.00 0.00 0.02 0.19 0.23 0.33 0.41 0.49 0.47 0.55 0.49 0.46 0.58
0.00 0.00 0.00 0.00 0.00 0.00 0.00 0.00 0.00 0.00 0.00 0.00 0.00 0.00 0.00 0.00 0.00 0.00 0.00 0.00 0.00 0.00 0.00 0.00 0.00 0.00 0.00 0.00 0.00 0.00 0.00 0.00 0.07 0.16 0.17 0.25 0.44 0.75 0.71 0.65 0.73 0.66 0.58
0.00 0.00 0.00 0.01 0.01 0.00 0.01 0.01 0.00 0.00 0.00 0.00 0.00 0.00 0.00 0.00 0.00 0.00 0.00 0.00 0.00 0.00 0.00 0.00 0.00 0.00 0.00 0.00 0.00 0.00 0.00 0.00 0.07 0.31 0.34 0.35 0.35 0.72 1.27 1.07 0.84 0.66 0.60
0.00 0.00 0.00 0.00 0.00 0.00 0.00 0.01 0.03 0.04 0.05 0.01 0.00 0.00 0.00 0.00 0.00 0.00 0.00 0.00 0.00 0.00 0.00 0.00 0.00 0.00 0.00 0.00 0.00 0.00 0.00 0.01 0.14 0.33 0.26 0.21 0.13 0.32 2.98 2.51 0.82 0.41 0.31
0.00 0.00 0.01 0.00 0.00 0.00 0.00 0.00 0.07 0.10 0.09 0.05 0.02 0.00 0.00 0.00 0.00 0.00 0.00 0.00 0.00 0.01 0.00 0.00 0.00 0.00 0.00 0.00 0.00 0.00 0.00 0.00 0.07 0.14 0.28 0.25 0.07 0.13 0.17 0.21 0.18 0.16 0.15
0.01 0.01 0.01 0.02 0.01 0.00 0.01 0.00 0.04 0.12 0.09 0.09 0.09 0.09 0.03 0.00 0.00 0.00 0.00 0.01 0.04 0.01 0.00 0.00 0.00 0.00 0.00 0.00 0.00 0.00 0.00 0.00 0.04 0.16 0.40 0.23 0.10 0.13 0.35 0.15 0.10 0.11 0.11
0.00 0.00 0.00 0.01 0.02 0.00 0.01 0.02 0.01 0.05 0.07 0.06 0.06 0.10 0.12 0.05 0.01 0.00 0.00 0.01 0.07 0.08 0.00 0.00 0.00 0.00 0.00 0.00 0.00 0.00 0.00 0.02 0.11 0.19 0.60 0.26 0.26 0.40 0.18 0.16 0.20 0.20 0.19
0.00 0.00 0.00 0.01 0.04 0.05 0.02 0.02 0.02 0.03 0.03 0.04 0.04 0.04 0.05 0.05 0.04 0.01 0.03 0.00 0.01 0.01 0.00 0.00 0.00 0.00 0.00 0.00 0.03 0.01 0.00 0.04 0.10 0.09 0.19 0.16 0.22 0.52 0.53 0.24 0.20 0.19 0.20
0.00 0.00 0.00 0.02 0.09 0.27 0.27 0.13 0.09 0.10 0.07 0.02 0.01 0.07 0.07 0.07 0.08 0.04 0.03 0.02 0.02 0.01 0.01 0.00 0.00 0.00 0.00 0.00 0.03 0.02 0.02 0.05 0.09 0.12 0.13 0.06 0.22 0.39 0.48 0.37 0.27 0.27 0.29
0.00 0.00 0.00 0.00 0.04 0.14 0.26 0.40 0.35 0.12 0.16 0.15 0.07 0.06 0.08 0.09 0.10 0.10 0.05 0.05 0.02 0.02 0.01 0.01 0.00 0.01 0.00 0.00 0.00 0.00 0.02 0.05 0.04 0.05 0.09 0.10 0.10 0.27 0.54 0.74 0.73 0.76 0.48
0.00 0.00 0.00 0.00 0.00 0.05 0.21 0.10 0.26 0.32 0.28 0.26 0.17 0.09 0.15 0.16 0.15 0.17 0.09 0.05 0.03 0.03 0.02 0.02 0.01 0.02 0.01 0.00 0.01 0.00 0.02 0.01 0.00 0.03 0.03 0.09 0.03 0.09 0.33 0.72 0.98 0.92 0.46
0.00 0.00 0.00 0.00 0.00 0.00 0.07 0.13 0.11 0.30 0.48 0.33 0.22 0.20 0.14 0.20 0.18 0.22 0.22 0.13 0.02 0.02 0.05 0.03 0.03 0.02 0.02 0.02 0.02 0.01 0.00 0.01 0.00 0.00 0.02 0.04 0.05 0.04 0.11 0.33 0.57 0.64 0.48
0.00 0.00 0.00 0.00 0.00 0.00 0.04 0.17 0.12 0.16 0.35 0.32 0.30 0.17 0.15 0.10 0.16 0.21 0.28 0.24 0.21 0.08 0.03 0.01 0.02 0.01 0.01 0.03 0.03 0.03 0.02 0.00 0.00 0.00 0.01 0.02 0.04 0.12 0.10 0.09 0.30 0.44 0.48
0.00 0.00 0.00 0.00 0.00 0.00 0.06 0.10 0.11 0.12 0.22 0.22 0.18 0.32 0.37 0.32 0.32 0.30 0.23 0.27 0.32 0.21 0.04 0.01 0.01 0.00 0.01 0.02 0.03 0.04 0.03 0.01 0.02 0.02 0.01 0.01 0.01 0.03 0.13 0.14 0.12 0.16 0.18
0.00 0.00 0.00 0.00 0.00 0.00 0.03 0.15 0.20 0.29 0.27 0.26 0.31 0.38 0.47 0.46 0.54 0.54 0.45 0.33 0.34 0.29 0.16 0.04 0.00 0.01 0.01 0.01 0.01 0.02 0.02 0.02 0.02 0.03 0.02 0.02 0.01 0.01 0.05 0.20 0.18 0.17 0.12
0.00 0.00 0.00 0.00 0.00 0.00 0.04 0.14 0.16 0.15 0.15 0.16 0.20 0.32 0.48 0.59 0.64 0.85 0.85 0.72 0.45 0.33 0.24 0.19 0.09 0.05 0.03 0.04 0.08 0.05 0.03 0.02 0.01 0.01 0.02 0.01 0.02 0.01 0.02 0.10 0.31 0.32 0.26
0.00 0.00 0.00 0.00 0.00 0.01 0.00 0.04 0.13 0.18 0.17 0.10 0.09 0.22 0.35 0.30 0.43 0.67 0.86 0.97 1.16 0.85 0.57 0.40 0.35 0.14 0.06 0.08 0.07 0.04 0.04 0.02 0.01 0.00 0.00 0.01 0.00 0.01 0.01 0.16 0.25 0.29 0.33
0.00 0.00 0.00 0.00 0.00 0.02 0.01 0.09 0.19 0.17 0.18 0.19 0.19 0.09 0.07 0.20 0.21 0.36 0.67 0.71 0.66 0.82 0.94 0.99 1.05 0.81 0.24 0.09 0.12 0.05 0.03 0.02 0.00 0.00 0.00 0.00 0.01 0.01 0.01 0.09 0.29 0.21 0.22
0.00 0.00 0.00 0.00 0.00 0.04 0.15 0.32 0.28 0.23 0.25 0.11 0.05 0.09 0.11 0.24 0.28 0.28 0.34 0.38 0.67 0.84 0.56 0.70 0.56 0.71 0.51 0.14 0.16 0.11 0.03 0.00 0.00 0.00 0.01 0.00 0.01 0.01 0.01 0.02 0.12 0.19 0.15
0.00 0.00 0.00 0.00 0.00 0.01 0.09 0.41 0.48 0.42 0.21 0.13 0.16 0.28 0.28 0.25 0.37 0.40 0.43 0.44 0.51 0.57 0.56 0.54 0.35 0.25 0.27 0.30 0.13 0.11 0.10 0.03 0.01 0.01 0.01 0.02 0.02 0.00 0.01 0.02 0.08 0.18 0.15
0.04 0.04 0.01 0.01 0.00 0.00 0.01 0.13 0.42 0.81 1.21 1.41 1.18 0.78 0.54 0.51 0.59 0.66 0.62 0.67 1.08 1.19 0.87 0.59 0.80 0.69 0.50 0.35 0.28 0.29 0.17 0.06 0.03 0.02 0.01 0.01 0.03 0.02 0.03 0.05 0.06 0.15 0.27

GFSSE_prec_precacc24_147.txt.gz
Total_Precipitation_Accumulation
0.00 0.00 0.00 0.00 0.00 0.00 0.00 0.00 0.00 0.00 0.00 0.00 0.00 0.00 0.00 0.00 0.00 0.00 0.00 0.00 0.00 0.00 0.00 0.00 0.00 0.00 0.00 0.00 0.01 0.02 0.02 0.03 0.04 0.11 0.11 0.12 0.09 0.06 0.07 0.13 0.33 0.27 0.52
0.00 0.00 0.00 0.00 0.00 0.00 0.00 0.00 0.00 0.00 0.00 0.00 0.00 0.00 0.00 0.00 0.00 0.00 0.00 0.00 0.00 0.00 0.00 0.00 0.00 0.00 0.01 0.02 0.02 0.03 0.02 0.01 0.01 0.08 0.14 0.16 0.15 0.12 0.22 0.25 0.51 0.32 0.48
0.00 0.00 0.00 0.00 0.00 0.00 0.00 0.00 0.00 0.00 0.00 0.00 0.00 0.00 0.00 0.00 0.00 0.00 0.00 0.00 0.00 0.00 0.00 0.00 0.00 0.02 0.01 0.01 0.00 0.01 0.02 0.00 0.02 0.12 0.20 0.18 0.10 0.21 0.25 0.36 0.30 0.54 0.42
0.00 0.00 0.00 0.00 0.00 0.00 0.00 0.00 0.00 0.00 0.00 0.00 0.00 0.00 0.00 0.00 0.00 0.00 0.00 0.00 0.00 0.00 0.00 0.00 0.00 0.00 0.00 0.00 0.00 0.00 0.00 0.00 0.00 0.06 0.22 0.50 0.34 0.20 0.28 0.30 0.38 0.41 0.44
0.01 0.00 0.02 0.01 0.01 0.00 0.00 0.00 0.00 0.00 0.00 0.00 0.00 0.00 0.00 0.00 0.00 0.00 0.00 0.00 0.00 0.00 0.00 0.00 0.00 0.00 0.00 0.00 0.00 0.00 0.00 0.00 0.00 0.06 0.60 1.35 0.62 0.23 0.21 0.22 0.32 0.38 0.53
0.00 0.00 0.01 0.02 0.01 0.01 0.00 0.00 0.00 0.00 0.00 0.00 0.00 0.00 0.00 0.00 0.00 0.00 0.00 0.00 0.00 0.00 0.00 0.00 0.00 0.00 0.00 0.00 0.00 0.00 0.00 0.00 0.02 0.19 0.23 0.32 0.40 0.41 0.35 0.39 0.42 0.47 0.59
0.00 0.00 0.00 0.00 0.01 0.01 0.01 0.01 0.01 0.01 0.00 0.00 0.00 0.00 0.00 0.00 0.00 0.00 0.00 0.00 0.00 0.00 0.00 0.00 0.00 0.00 0.00 0.00 0.00 0.00 0.00 0.00 0.07 0.16 0.17 0.24 0.37 0.50 0.52 0.47 0.65 0.68 0.61
0.00 0.00 0.00 0.01 0.01 0.01 0.01 0.02 0.01 0.02 0.04 0.01 0.00 0.00 0.02 0.02 0.00 0.00 0.00 0.00 0.00 0.00 0.00 0.00 0.00 0.00 0.00 0.00 0.00 0.00 0.00 0.00 0.07 0.31 0.32 0.29 0.21 0.27 0.59 0.82 0.68 0.61 0.60
0.00 0.00 0.00 0.00 0.00 0.00 0.00 0.02 0.07 0.05 0.10 0.06 0.02 0.06 0.06 0.04 0.02 0.00 0.00 0.00 0.00 0.00 0.00 0.00 0.00 0.00 0.00 0.00 0.00 0.00 0.00 0.01 0.14 0.31 0.24 0.16 0.06 0.15 1.01 2.14 0.73 0.34 0.29
0.00 0.00 0.01 0.00 0.00 0.00 0.00 0.00 0.11 0.14 0.11 0.07 0.05 0.08 0.10 0.10 0.05 0.01 0.00 0.00 0.00 0.00 0.00 0.00 0.00 0.00 0.00 0.00 0.00 0.00 0.00 0.00 0.07 0.14 0.24 0.21 0.05 0.12 0.16 0.15 0.12 0.08 0.08
0.01 0.01 0.01 0.02 0.01 0.00 0.01 0.00 0.05 0.14 0.13 0.11 0.09 0.13 0.14 0.12 0.14 0.10 0.01 0.02 0.04 0.01 0.00 0.00 0.00 0.00 0.00 0.00 0.00 0.00 0.00 0.00 0.04 0.14 0.37 0.22 0.09 0.13 0.14 0.07 0.09 0.08 0.07
0.00 0.00 0.00 0.01 0.02 0.00 0.01 0.02 0.01 0.05 0.08 0.08 0.08 0.10 0.12 0.08 0.10 0.07 0.10 0.08 0.07 0.09 0.00 0.00 0.00 0.00 0.00 0.00 0.00 0.00 0.00 0.02 0.11 0.16 0.55 0.18 0.17 0.24 0.13 0.17 0.20 0.19 0.18
0.00 0.00 0.00 0.01 0.04 0.05 0.02 0.02 0.02 0.03 0.03 0.04 0.04 0.04 0.05 0.06 0.06 0.03 0.06 0.06 0.03 0.02 0.00 0.00 0.00 0.00 0.00 0.00 0.03 0.01 0.00 0.04 0.10 0.09 0.15 0.02 0.12 0.29 0.30 0.13 0.19 0.18 0.20
0.00 0.00 0.00 0.02 0.09 0.27 0.27 0.13 0.09 0.10 0.06 0.02 0.01 0.07 0.07 0.08 0.09 0.06 0.07 0.06 0.05 0.03 0.01 0.00 0.00 0.00 0.00 0.00 0.03 0.02 0.02 0.05 0.09 0.12 0.13 0.01 0.09 0.22 0.27 0.22 0.21 0.26 0.29
0.00 0.00 0.00 0.00 0.04 0.14 0.26 0.40 0.35 0.12 0.16 0.15 0.07 0.06 0.08 0.10 0.10 0.12 0.08 0.08 0.05 0.07 0.04 0.03 0.01 0.01 0.00 0.00 0.00 0.00 0.02 0.05 0.04 0.05 0.09 0.09 0.03 0.14 0.31 0.33 0.46 0.69 0.48
0.00 0.00 0.00 0.00 0.00 0.05 0.21 0.10 0.26 0.32 0.28 0.26 0.17 0.09 0.15 0.16 0.15 0.18 0.14 0.12 0.10 0.08 0.08 0.06 0.03 0.02 0.01 0.00 0.01 0.00 0.02 0.01 0.00 0.03 0.03 0.09 0.03 0.01 0.17 0.40 0.52 0.73 0.45
0.00 0.00 0.00 0.00 0.00 0.00 0.07 0.13 0.11 0.30 0.48 0.33 0.22 0.20 0.14 0.20 0.18 0.22 0.22 0.17 0.11 0.09 0.11 0.07 0.06 0.04 0.03 0.02 0.02 0.01 0.00 0.01 0.00 0.00 0.02 0.04 0.06 0.02 0.02 0.10 0.36 0.49 0.44
0.00 0.00 0.00 0.00 0.00 0.00 0.04 0.17 0.12 0.16 0.35 0.32 0.30 0.17 0.15 0.10 0.16 0.21 0.28 0.24 0.25 0.21 0.15 0.08 0.04 0.03 0.02 0.03 0.03 0.03 0.02 0.00 0.00 0.00 0.01 0.02 0.04 0.11 0.07 0.04 0.13 0.19 0.27
0.00 0.00 0.00 0.00 0.00 0.00 0.06 0.10 0.10 0.11 0.22 0.22 0.18 0.32 0.37 0.32 0.32 0.30 0.23 0.27 0.33 0.30 0.23 0.16 0.06 0.01 0.01 0.02 0.03 0.04 0.03 0.01 0.02 0.02 0.01 0.01 0.01 0.03 0.10 0.08 0.02 0.03 0.10
0.00 0.00 0.00 0.00 0.00 0.00 0.03 0.15 0.19 0.29 0.26 0.26 0.31 0.38 0.47 0.46 0.54 0.54 0.45 0.33 0.34 0.31 0.25 0.23 0.19 0.12 0.03 0.01 0.01 0.02 0.02 0.02 0.02 0.03 0.02 0.02 0.01 0.01 0.05 0.18 0.10 0.03 0.04
0.00 0.00 0.00 0.00 0.00 0.00 0.04 0.14 0.15 0.15 0.15 0.15 0.20 0.32 0.48 0.59 0.64 0.85 0.86 0.72 0.45 0.34 0.25 0.26 0.28 0.26 0.19 0.10 0.12 0.05 0.03 0.02 0.01 0.01 0.02 0.02 0.02 0.01 0.02 0.07 0.14 0.13 0.06
0.00 0.00 0.00 0.00 0.00 0.00 0.00 0.04 0.12 0.17 0.17 0.08 0.08 0.22 0.34 0.30 0.43 0.67 0.86 0.97 1.17 0.86 0.57 0.41 0.41 0.41 0.63 0.74 0.42 0.10 0.05 0.03 0.01 0.00 0.00 0.01 0.00 0.01 0.01 0.01 0.04 0.10 0.14
0.00 0.00 0.00 0.00 0.00 0.02 0.01 0.08 0.16 0.16 0.18 0.18 0.19 0.09 0.06 0.19 0.21 0.36 0.67 0.72 0.66 0.82 0.94 0.99 1.06 1.05 0.92 0.90 0.85 0.53 0.13 0.04 0.00 0.00 0.00 0.00 0.01 0.01 0.00 0.00 0.01 0.02 0.11
0.00 0.00 0.00 0.00 0.00 0.04 0.14 0.31 0.28 0.23 0.25 0.11 0.06 0.08 0.07 0.21 0.25 0.27 0.34 0.38 0.67 0.84 0.56 0.70 0.56 0.75 0.97 1.11 1.33 0.95 0.45 0.07 0.01 0.00 0.01 0.00 0.00 0.00 0.00 0.01 0.02 0.03 0.05
0.00 0.00 0.00 0.00 0.00 0.01 0.09 0.40 0.48 0.42 0.21 0.13 0.16 0.28 0.26 0.22 0.28 0.33 0.38 0.41 0.50 0.55 0.56 0.55 0.36 0.25 0.29 0.37 0.39 0.69 0.89 0.39 0.08 0.01 0.01 0.02 0.02 0.00 0.00 0.01 0.00 0.02 0.05
0.04 0.04 0.01 0.01 0.00 0.00 0.01 0.13 0.43 0.81 1.21 1.42 1.19 0.79 0.54 0.47 0.51 0.55 0.47 0.52 0.93 1.09 0.83 0.58 0.81 0.70 0.51 0.36 0.38 0.49 0.37 0.24 0.11 0.05 0.01 0.01 0.02 0.01 0.01 0.01 0.02 0.02 0.07

GFSSE_prec_precacc24_150.txt.gz
Total_Precipitation_Accumulation
0.00 0.00 0.00 0.00 0.00 0.00 0.00 0.00 0.00 0.00 0.00 0.00 0.00 0.00 0.00 0.00 0.00 0.00 0.00 0.00 0.00 0.00 0.00 0.00 0.00 0.00 0.00 0.00 0.01 0.02 0.02 0.03 0.04 0.10 0.10 0.10 0.07 0.03 0.04 0.10 0.27 0.27 0.48
0.01 0.00 0.00 0.00 0.00 0.00 0.00 0.00 0.00 0.00 0.00 0.00 0.00 0.00 0.00 0.00 0.00 0.00 0.00 0.00 0.00 0.00 0.00 0.00 0.00 0.00 0.01 0.02 0.02 0.03 0.02 0.01 0.01 0.08 0.13 0.09 0.09 0.10 0.21 0.22 0.48 0.35 0.44
0.00 0.00 0.00 0.00 0.00 0.00 0.00 0.00 0.00 0.00 0.00 0.00 0.00 0.00 0.00 0.00 0.00 0.00 0.00 0.00 0.00 0.00 0.00 0.00 0.00 0.02 0.01 0.01 0.00 0.01 0.02 0.00 0.02 0.12 0.20 0.19 0.08 0.20 0.24 0.33 0.26 0.58 0.45
0.00 0.00 0.00 0.00 0.00 0.00 0.00 0.00 0.00 0.00 0.00 0.00 0.00 0.00 0.00 0.00 0.00 0.00 0.00 0.00 0.00 0.00 0.00 0.00 0.00 0.00 0.00 0.00 0.00 0.00 0.00 0.00 0.00 0.06 0.18 0.40 0.28 0.18 0.27 0.23 0.35 0.43 0.47
0.03 0.01 0.02 0.02 0.01 0.01 0.01 0.00 0.00 0.00 0.00 0.00 0.00 0.00 0.00 0.00 0.00 0.00 0.00 0.00 0.00 0.00 0.00 0.00 0.00 0.00 0.00 0.00 0.00 0.00 0.00 0.00 0.00 0.04 0.55 1.28 0.51 0.20 0.17 0.16 0.22 0.28 0.44
0.01 0.01 0.01 0.03 0.03 0.02 0.01 0.01 0.01 0.00 0.00 0.00 0.00 0.01 0.00 0.00 0.00 0.00 0.00 0.00 0.00 0.00 0.00 0.00 0.00 0.00 0.00 0.00 0.00 0.00 0.00 0.00 0.01 0.16 0.20 0.31 0.28 0.31 0.23 0.26 0.26 0.34 0.52
0.00 0.00 0.00 0.00 0.01 0.01 0.01 0.01 0.01 0.01 0.00 0.00 0.00 0.04 0.05 0.04 0.02 0.00 0.00 0.00 0.00 0.00 0.00 0.00 0.00 0.00 0.00 0.00 0.00 0.00 0.00 0.00 0.06 0.14 0.12 0.18 0.22 0.29 0.29 0.27 0.34 0.53 0.59
0.00 0.00 0.00 0.01 0.01 0.01 0.01 0.02 0.01 0.03 0.06 0.02 0.00 0.03 0.09 0.09 0.07 0.02 0.00 0.00 0.00 0.00 0.00 0.00 0.00 0.00 0.00 0.00 0.00 0.00 0.00 0.00 0.06 0.26 0.23 0.15 0.06 0.15 0.20 0.25 0.33 0.36 0.53
0.00 0.00 0.00 0.00 0.00 0.00 0.00 0.03 0.07 0.06 0.14 0.11 0.09 0.09 0.09 0.10 0.09 0.09 0.04 0.01 0.00 0.00 0.00 0.00 0.00 0.00 0.00 0.00 0.00 0.00 0.00 0.01 0.09 0.23 0.15 0.05 0.03 0.09 0.15 0.55 0.51 0.25 0.26
0.00 0.00 0.01 0.00 0.00 0.00 0.00 0.00 0.11 0.14 0.11 0.10 0.14 0.23 0.18 0.12 0.10 0.08 0.08 0.06 0.02 0.00 0.00 0.00 0.00 0.00 0.00 0.00 0.00 0.00 0.00 0.00 0.04 0.10 0.12 0.10 0.03 0.09 0.15 0.12 0.09 0.08 0.07
0.01 0.01 0.01 0.02 0.01 0.00 0.01 0.00 0.05 0.14 0.13 0.11 0.10 0.16 0.20 0.14 0.19 0.22 0.11 0.12 0.14 0.08 0.03 0.01 0.00 0.00 0.00 0.00 0.00 0.00 0.00 0.00 0.03 0.11 0.26 0.13 0.06 0.10 0.14 0.07 0.09 0.08 0.07
0.00 0.00 0.00 0.01 0.02 0.00 0.01 0.02 0.01 0.05 0.08 0.08 0.08 0.10 0.12 0.08 0.10 0.10 0.17 0.16 0.13 0.17 0.09 0.03 0.02 0.00 0.00 0.00 0.00 0.00 0.00 0.02 0.11 0.13 0.42 0.09 0.10 0.10 0.09 0.16 0.17 0.17 0.16
0.00 0.00 0.00 0.01 0.04 0.05 0.02 0.02 0.02 0.03 0.03 0.04 0.04 0.04 0.04 0.06 0.06 0.04 0.08 0.08 0.11 0.13 0.08 0.04 0.01 0.00 0.00 0.00 0.03 0.01 0.00 0.04 0.10 0.09 0.07 0.01 0.08 0.16 0.12 0.05 0.07 0.08 0.14
0.00 0.00 0.00 0.02 0.09 0.27 0.27 0.13 0.09 0.10 0.06 0.02 0.01 0.07 0.07 0.07 0.09 0.06 0.07 0.07 0.06 0.08 0.09 0.11 0.06 0.02 0.00 0.00 0.03 0.02 0.02 0.05 0.09 0.12 0.08 0.01 0.07 0.12 0.09 0.13 0.02 0.04 0.13
0.00 0.00 0.00 0.00 0.04 0.14 0.26 0.40 0.35 0.12 0.16 0.15 0.07 0.06 0.08 0.10 0.10 0.12 0.07 0.08 0.06 0.09 0.06 0.06 0.03 0.03 0.03 0.02 0.01 0.00 0.02 0.05 0.04 0.05 0.07 0.02 0.03 0.11 0.22 0.10 0.17 0.20 0.20
0.00 0.00 0.00 0.00 0.00 0.05 0.21 0.10 0.26 0.32 0.28 0.26 0.17 0.09 0.15 0.16 0.15 0.18 0.14 0.12 0.09 0.11 0.14 0.10 0.05 0.04 0.02 0.04 0.02 0.01 0.02 0.01 0.00 0.03 0.03 0.03 0.02 0.01 0.14 0.29 0.27 0.23 0.16
0.00 0.00 0.00 0.00 0.00 0.00 0.07 0.13 0.11 0.30 0.48 0.33 0.22 0.20 0.14 0.20 0.18 0.22 0.22 0.16 0.11 0.09 0.13 0.14 0.12 0.07 0.03 0.03 0.04 0.03 0.01 0.01 0.00 0.00 0.02 0.03 0.03 0.00 0.01 0.04 0.17 0.36 0.38
0.00 0.00 0.00 0.00 0.00 0.00 0.04 0.17 0.12 0.16 0.35 0.32 0.30 0.17 0.15 0.10 0.16 0.21 0.28 0.24 0.25 0.21 0.16 0.10 0.08 0.08 0.03 0.02 0.03 0.06 0.03 0.00 0.00 0.00 0.01 0.02 0.02 0.03 0.01 0.01 0.02 0.07 0.14
0.00 0.00 0.00 0.00 0.00 0.00 0.06 0.10 0.10 0.11 0.22 0.22 0.18 0.32 0.37 0.32 0.32 0.30 0.23 0.27 0.33 0.30 0.23 0.16 0.09 0.06 0.05 0.03 0.02 0.04 0.06 0.01 0.02 0.01 0.01 0.01 0.01 0.03 0.04 0.03 0.00 0.01 0.02
0.00 0.00 0.00 0.00 0.00 0.00 0.03 0.15 0.19 0.29 0.26 0.26 0.31 0.38 0.47 0.46 0.54 0.53 0.45 0.33 0.34 0.31 0.25 0.23 0.19 0.16 0.13 0.07 0.03 0.02 0.05 0.06 0.02 0.02 0.02 0.01 0.00 0.00 0.03 0.12 0.04 0.01 0.00
0.00 0.00 0.00 0.00 0.00 0.00 0.04 0.14 0.15 0.15 0.15 0.15 0.20 0.32 0.48 0.59 0.64 0.85 0.86 0.72 0.45 0.34 0.25 0.26 0.28 0.26 0.30 0.37 0.37 0.21 0.09 0.09 0.07 0.03 0.03 0.02 0.01 0.00 0.02 0.07 0.10 0.06 0.02
0.00 0.00 0.00 0.00 0.00 0.00 0.00 0.04 0.12 0.17 0.17 0.08 0.08 0.22 0.34 0.30 0.43 0.67 0.86 0.97 1.17 0.86 0.57 0.41 0.41 0.41 0.63 0.88 0.88 0.55 0.32 0.29 0.13 0.04 0.03 0.02 0.01 0.01 0.02 0.02 0.04 0.08 0.07
0.00 0.00 0.00 0.00 0.00 0.01 0.01 0.07 0.14 0.16 0.18 0.18 0.19 0.09 0.05 0.19 0.21 0.36 0.68 0.72 0.67 0.82 0.95 0.99 1.06 1.05 0.92 0.91 0.96 1.11 1.00 0.68 0.47 0.21 0.04 0.02 0.02 0.02 0.02 0.02 0.01 0.02 0.07
0.00 0.00 0.00 0.00 0.00 0.03 0.10 0.24 0.25 0.23 0.25 0.12 0.06 0.08 0.07 0.20 0.25 0.27 0.35 0.39 0.68 0.85 0.57 0.70 0.56 0.76 0.97 1.11 1.34 0.96 0.61 0.47 0.38 0.33 0.18 0.04 0.03 0.02 0.01 0.01 0.02 0.03 0.03
0.00 0.00 0.00 0.00 0.00 0.00 0.04 0.18 0.34 0.40 0.21 0.13 0.16 0.28 0.25 0.21 0.27 0.33 0.38 0.41 0.49 0.55 0.54 0.55 0.36 0.26 0.28 0.37 0.39 0.71 1.08 0.89 0.48 0.22 0.15 0.08 0.06 0.02 0.02 0.02 0.01 0.02 0.04
0.02 0.03 0.01 0.01 0.00 0.00 0.01 0.09 0.22 0.68 1.21 1.41 1.19 0.79 0.54 0.46 0.49 0.54 0.45 0.50 0.88 0.99 0.77 0.56 0.80 0.71 0.52 0.37 0.39 0.51 0.40 0.36 0.46 0.52 0.37 0.19 0.07 0.03 0.02 0.02 0.02 0.01 0.02

GFSSE_prec_precacc24_156.txt.gz
Total_Precipitation_Accumulation
0.04 0.00 0.00 0.00 0.00 0.00 0.00 0.00 0.00 0.00 0.00 0.00 0.00 0.00 0.00 0.00 0.00 0.00 0.00 0.00 0.00 0.00 0.00 0.00 0.00 0.00 0.00 0.00 0.01 0.02 0.02 0.03 0.03 0.08 0.09 0.10 0.07 0.02 0.03 0.08 0.18 0.43 0.45
0.08 0.01 0.00 0.00 0.00 0.00 0.00 0.00 0.00 0.00 0.00 0.00 0.00 0.00 0.00 0.00 0.00 0.00 0.00 0.01 0.01 0.02 0.01 0.00 0.00 0.00 0.01 0.02 0.02 0.03 0.02 0.01 0.01 0.06 0.09 0.08 0.09 0.08 0.17 0.12 0.26 0.75 0.45
0.01 0.00 0.00 0.01 0.01 0.00 0.00 0.00 0.00 0.00 0.00 0.00 0.00 0.00 0.00 0.00 0.00 0.00 0.00 0.00 0.00 0.00 0.01 0.00 0.00 0.02 0.01 0.01 0.00 0.01 0.02 0.00 0.01 0.03 0.08 0.10 0.04 0.11 0.17 0.22 0.15 0.47 0.53
0.01 0.00 0.00 0.01 0.01 0.01 0.00 0.00 0.00 0.00 0.00 0.00 0.00 0.00 0.00 0.00 0.00 0.00 0.00 0.00 0.00 0.00 0.00 0.00 0.00 0.00 0.00 0.00 0.00 0.00 0.00 0.00 0.00 0.00 0.06 0.19 0.08 0.17 0.13 0.11 0.12 0.23 0.28
0.03 0.01 0.02 0.02 0.01 0.01 0.01 0.00 0.00 0.00 0.00 0.00 0.00 0.00 0.03 0.06 0.04 0.03 0.00 0.00 0.00 0.01 0.01 0.00 0.00 0.00 0.00 0.00 0.00 0.00 0.00 0.00 0.00 0.00 0.03 0.19 0.23 0.17 0.11 0.10 0.12 0.20 0.19
0.01 0.01 0.01 0.03 0.03 0.02 0.01 0.01 0.01 0.00 0.00 0.00 0.00 0.01 0.06 0.12 0.12 0.07 0.01 0.00 0.00 0.01 0.03 0.02 0.00 0.00 0.00 0.00 0.00 0.00 0.00 0.00 0.01 0.05 0.06 0.19 0.11 0.18 0.14 0.15 0.13 0.11 0.10
0.00 0.00 0.00 0.00 0.01 0.01 0.01 0.01 0.01 0.01 0.00 0.00 0.00 0.04 0.07 0.07 0.07 0.05 0.02 0.00 0.00 0.00 0.00 0.01 0.00 0.00 0.00 0.00 0.00 0.00 0.00 0.00 0.03 0.09 0.09 0.12 0.09 0.18 0.22 0.14 0.12 0.11 0.12
0.00 0.00 0.00 0.01 0.01 0.01 0.01 0.02 0.01 0.03 0.06 0.02 0.04 0.04 0.09 0.09 0.08 0.06 0.04 0.02 0.00 0.00 0.00 0.00 0.00 0.00 0.00 0.00 0.00 0.00 0.00 0.00 0.02 0.06 0.16 0.04 0.04 0.15 0.27 0.22 0.13 0.11 0.13
0.00 0.00 0.00 0.00 0.00 0.00 0.00 0.03 0.07 0.06 0.14 0.11 0.12 0.16 0.11 0.10 0.09 0.09 0.08 0.07 0.03 0.01 0.00 0.00 0.00 0.00 0.00 0.00 0.00 0.00 0.00 0.00 0.00 0.05 0.05 0.01 0.03 0.08 0.14 0.10 0.09 0.09 0.09
0.00 0.00 0.00 0.00 0.00 0.00 0.00 0.00 0.11 0.14 0.11 0.10 0.14 0.24 0.22 0.16 0.16 0.13 0.15 0.10 0.06 0.02 0.02 0.01 0.01 0.00 0.00 0.00 0.00 0.00 0.00 0.00 0.01 0.05 0.05 0.01 0.02 0.06 0.13 0.13 0.08 0.06 0.05
0.01 0.00 0.00 0.01 0.01 0.00 0.01 0.00 0.05 0.14 0.13 0.11 0.10 0.16 0.20 0.16 0.25 0.33 0.27 0.28 0.22 0.14 0.08 0.06 0.05 0.02 0.00 0.00 0.00 0.00 0.00 0.00 0.02 0.06 0.04 0.01 0.05 0.09 0.13 0.06 0.04 0.04 0.02
0.00 0.00 0.00 0.01 0.01 0.00 0.01 0.02 0.01 0.05 0.08 0.08 0.08 0.10 0.12 0.08 0.10 0.11 0.21 0.31 0.22 0.14 0.09 0.06 0.04 0.02 0.00 0.00 0.00 0.00 0.00 0.01 0.08 0.05 0.01 0.02 0.09 0.08 0.07 0.03 0.04 0.03 0.00
0.00 0.00 0.00 0.00 0.04 0.04 0.02 0.02 0.02 0.03 0.03 0.04 0.04 0.04 0.04 0.06 0.04 0.03 0.07 0.13 0.19 0.25 0.13 0.14 0.08 0.03 0.00 0.00 0.00 0.00 0.00 0.01 0.07 0.06 0.01 0.00 0.08 0.13 0.04 0.04 0.04 0.01 0.02
0.00 0.00 0.00 0.02 0.09 0.24 0.25 0.13 0.09 0.10 0.06 0.02 0.01 0.06 0.07 0.07 0.07 0.05 0.05 0.06 0.08 0.16 0.19 0.29 0.24 0.21 0.18 0.08 0.02 0.00 0.00 0.02 0.04 0.06 0.03 0.01 0.07 0.11 0.04 0.07 0.02 0.00 0.01
0.00 0.00 0.00 0.00 0.03 0.11 0.24 0.39 0.35 0.12 0.16 0.15 0.07 0.06 0.07 0.10 0.10 0.11 0.06 0.07 0.05 0.09 0.12 0.15 0.15 0.20 0.25 0.32 0.22 0.12 0.03 0.05 0.04 0.04 0.02 0.00 0.03 0.11 0.21 0.07 0.03 0.00 0.00
0.00 0.00 0.00 0.00 0.00 0.01 0.06 0.08 0.25 0.32 0.28 0.26 0.17 0.09 0.15 0.16 0.15 0.18 0.13 0.11 0.08 0.09 0.13 0.14 0.11 0.11 0.13 0.21 0.23 0.23 0.14 0.07 0.02 0.01 0.00 0.00 0.01 0.01 0.14 0.25 0.19 0.10 0.03
0.00 0.00 0.00 0.00 0.00 0.00 0.01 0.04 0.09 0.28 0.48 0.33 0.22 0.20 0.14 0.20 0.18 0.21 0.22 0.16 0.10 0.08 0.11 0.12 0.12 0.12 0.10 0.11 0.15 0.21 0.20 0.16 0.08 0.03 0.00 0.00 0.01 0.00 0.01 0.03 0.15 0.25 0.22
0.00 0.00 0.00 0.00 0.00 0.00 0.02 0.09 0.09 0.16 0.35 0.32 0.30 0.17 0.15 0.10 0.16 0.20 0.27 0.24 0.25 0.19 0.15 0.09 0.07 0.10 0.10 0.09 0.12 0.16 0.23 0.20 0.13 0.06 0.04 0.00 0.00 0.00 0.00 0.01 0.02 0.16 0.17
0.00 0.00 0.00 0.00 0.00 0.00 0.00 0.03 0.08 0.08 0.22 0.22 0.18 0.32 0.37 0.32 0.32 0.29 0.23 0.26 0.33 0.29 0.22 0.15 0.08 0.06 0.07 0.08 0.10 0.13 0.20 0.18 0.20 0.16 0.09 0.06 0.01 0.01 0.00 0.00 0.00 0.02 0.07
0.00 0.00 0.00 0.00 0.00 0.00 0.00 0.00 0.03 0.13 0.18 0.24 0.31 0.38 0.47 0.46 0.54 0.53 0.45 0.32 0.34 0.30 0.24 0.23 0.19 0.15 0.13 0.09 0.07 0.08 0.16 0.26 0.26 0.24 0.16 0.08 0.06 0.02 0.01 0.01 0.01 0.01 0.01
0.00 0.00 0.00 0.00 0.00 0.00 0.00 0.00 0.00 0.02 0.06 0.07 0.20 0.32 0.48 0.59 0.64 0.85 0.86 0.72 0.45 0.34 0.25 0.26 0.28 0.26 0.30 0.37 0.39 0.25 0.15 0.24 0.28 0.28 0.24 0.16 0.14 0.03 0.03 0.01 0.07 0.01 0.00
0.00 0.00 0.00 0.00 0.00 0.00 0.00 0.00 0.00 0.00 0.05 0.05 0.07 0.22 0.34 0.30 0.43 0.67 0.86 0.98 1.17 0.86 0.58 0.41 0.41 0.41 0.63 0.87 0.89 0.60 0.41 0.42 0.31 0.29 0.29 0.26 0.16 0.08 0.06 0.03 0.02 0.03 0.01
0.00 0.00 0.00 0.00 0.00 0.00 0.00 0.00 0.00 0.00 0.00 0.04 0.10 0.09 0.05 0.19 0.21 0.36 0.68 0.73 0.67 0.83 0.96 0.99 1.07 1.05 0.92 0.90 0.96 1.13 1.05 0.74 0.59 0.39 0.29 0.28 0.42 0.52 0.42 0.20 0.05 0.06 0.05
0.00 0.00 0.00 0.00 0.00 0.00 0.00 0.00 0.00 0.01 0.02 0.02 0.02 0.07 0.07 0.20 0.25 0.28 0.35 0.39 0.68 0.85 0.57 0.71 0.57 0.77 0.98 1.11 1.33 0.96 0.62 0.51 0.44 0.40 0.39 0.39 0.33 0.50 0.79 1.21 0.61 0.15 0.13
0.00 0.00 0.00 0.00 0.00 0.00 0.00 0.00 0.01 0.02 0.03 0.03 0.09 0.24 0.25 0.21 0.27 0.33 0.38 0.41 0.49 0.55 0.55 0.55 0.37 0.27 0.30 0.38 0.40 0.71 1.08 0.91 0.51 0.27 0.21 0.17 0.18 0.18 0.24 0.26 0.47 0.31 0.21
0.00 0.00 0.00 0.00 0.00 0.00 0.00 0.01 0.03 0.03 0.02 0.04 0.13 0.26 0.33 0.33 0.40 0.51 0.42 0.47 0.87 0.98 0.76 0.55 0.79 0.71 0.51 0.37 0.38 0.51 0.41 0.38 0.48 0.56 0.41 0.23 0.15 0.09 0.09 0.11 0.15 0.21 0.19

GFSSE_prec_precacc24_159.txt.gz
Total_Precipitation_Accumulation
0.05 0.00 0.00 0.00 0.00 0.00 0.00 0.00 0.00 0.00 0.00 0.00 0.00 0.00 0.00 0.00 0.00 0.00 0.00 0.00 0.00 0.00 0.00 0.00 0.00 0.00 0.00 0.00 0.01 0.01 0.01 0.00 0.00 0.01 0.02 0.03 0.02 0.01 0.02 0.05 0.13 0.41 0.38
0.08 0.01 0.00 0.00 0.00 0.00 0.00 0.00 0.00 0.00 0.00 0.00 0.00 0.00 0.00 0.00 0.00 0.00 0.00 0.01 0.01 0.02 0.01 0.00 0.00 0.00 0.00 0.00 0.02 0.03 0.02 0.00 0.00 0.00 0.03 0.04 0.11 0.10 0.16 0.09 0.19 0.69 0.38
0.02 0.00 0.00 0.01 0.01 0.01 0.00 0.00 0.00 0.00 0.00 0.00 0.00 0.00 0.00 0.00 0.00 0.00 0.00 0.00 0.00 0.01 0.02 0.00 0.00 0.01 0.01 0.01 0.00 0.01 0.02 0.00 0.00 0.00 0.02 0.07 0.05 0.15 0.11 0.13 0.12 0.33 0.45
0.02 0.00 0.00 0.01 0.01 0.01 0.01 0.01 0.00 0.00 0.00 0.00 0.00 0.00 0.00 0.00 0.00 0.00 0.00 0.00 0.01 0.01 0.01 0.01 0.01 0.00 0.00 0.00 0.00 0.00 0.00 0.00 0.00 0.00 0.02 0.13 0.23 0.24 0.16 0.08 0.12 0.20 0.22
0.04 0.01 0.02 0.02 0.01 0.01 0.01 0.00 0.00 0.01 0.00 0.00 0.00 0.00 0.03 0.06 0.04 0.03 0.01 0.00 0.01 0.03 0.03 0.04 0.03 0.00 0.00 0.00 0.00 0.00 0.00 0.00 0.00 0.00 0.04 0.26 0.35 0.16 0.14 0.12 0.14 0.16 0.16
0.01 0.01 0.01 0.03 0.03 0.02 0.01 0.01 0.01 0.00 0.00 0.00 0.00 0.02 0.06 0.12 0.12 0.07 0.01 0.00 0.00 0.02 0.05 0.04 0.02 0.00 0.00 0.00 0.00 0.00 0.00 0.00 0.00 0.00 0.03 0.22 0.24 0.25 0.17 0.15 0.12 0.11 0.09
0.00 0.00 0.00 0.00 0.01 0.01 0.01 0.01 0.01 0.01 0.00 0.00 0.00 0.04 0.07 0.07 0.07 0.05 0.02 0.00 0.00 0.00 0.01 0.01 0.00 0.00 0.00 0.00 0.00 0.00 0.00 0.00 0.00 0.00 0.02 0.21 0.44 0.30 0.27 0.14 0.13 0.12 0.12
0.00 0.00 0.00 0.01 0.01 0.01 0.01 0.02 0.01 0.03 0.06 0.02 0.04 0.04 0.09 0.09 0.08 0.06 0.04 0.02 0.00 0.00 0.00 0.00 0.00 0.00 0.00 0.00 0.00 0.00 0.00 0.00 0.00 0.00 0.01 0.03 0.08 0.16 0.28 0.22 0.13 0.11 0.13
0.00 0.00 0.00 0.00 0.00 0.00 0.00 0.03 0.07 0.06 0.14 0.11 0.12 0.16 0.11 0.10 0.09 0.09 0.08 0.07 0.03 0.01 0.01 0.00 0.00 0.00 0.00 0.00 0.00 0.00 0.00 0.00 0.00 0.00 0.00 0.00 0.08 0.15 0.18 0.10 0.09 0.09 0.09
0.00 0.00 0.00 0.00 0.00 0.00 0.00 0.00 0.11 0.14 0.11 0.10 0.14 0.24 0.22 0.16 0.16 0.13 0.16 0.12 0.08 0.04 0.02 0.01 0.01 0.00 0.00 0.00 0.00 0.00 0.00 0.00 0.00 0.00 0.00 0.00 0.04 0.12 0.19 0.15 0.08 0.06 0.05
0.01 0.00 0.00 0.01 0.01 0.00 0.01 0.00 0.05 0.14 0.13 0.11 0.10 0.16 0.20 0.16 0.25 0.33 0.27 0.30 0.24 0.15 0.10 0.07 0.05 0.02 0.00 0.00 0.00 0.00 0.00 0.00 0.00 0.00 0.00 0.00 0.06 0.14 0.20 0.09 0.04 0.04 0.02
0.00 0.00 0.00 0.01 0.00 0.00 0.01 0.02 0.01 0.05 0.08 0.08 0.08 0.10 0.12 0.08 0.10 0.11 0.21 0.31 0.22 0.14 0.10 0.07 0.05 0.04 0.00 0.00 0.00 0.00 0.00 0.00 0.02 0.03 0.00 0.01 0.10 0.10 0.12 0.07 0.04 0.03 0.00
0.00 0.00 0.00 0.00 0.01 0.03 0.02 0.02 0.02 0.03 0.03 0.04 0.04 0.04 0.04 0.06 0.04 0.03 0.07 0.13 0.19 0.25 0.13 0.14 0.09 0.05 0.05 0.06 0.03 0.01 0.00 0.00 0.00 0.03 0.01 0.00 0.08 0.15 0.08 0.06 0.05 0.01 0.02
0.00 0.00 0.00 0.00 0.00 0.01 0.09 0.09 0.09 0.10 0.06 0.02 0.01 0.06 0.07 0.07 0.07 0.05 0.05 0.06 0.08 0.16 0.19 0.29 0.24 0.21 0.21 0.17 0.09 0.04 0.11 0.01 0.02 0.05 0.01 0.01 0.07 0.11 0.06 0.10 0.02 0.00 0.01
0.00 0.00 0.00 0.00 0.00 0.00 0.00 0.08 0.14 0.11 0.16 0.15 0.07 0.06 0.07 0.10 0.10 0.11 0.06 0.07 0.05 0.09 0.12 0.15 0.15 0.20 0.26 0.32 0.24 0.20 0.14 0.12 0.09 0.11 0.07 0.01 0.03 0.11 0.23 0.11 0.06 0.01 0.00
0.00 0.00 0.00 0.00 0.00 0.00 0.00 0.00 0.09 0.17 0.22 0.26 0.17 0.09 0.15 0.16 0.15 0.18 0.13 0.11 0.08 0.09 0.13 0.14 0.11 0.11 0.13 0.21 0.23 0.23 0.16 0.14 0.10 0.08 0.09 0.02 0.01 0.01 0.16 0.29 0.23 0.11 0.03
0.00 0.00 0.00 0.00 0.00 0.00 0.00 0.00 0.00 0.08 0.23 0.23 0.21 0.20 0.14 0.20 0.18 0.21 0.22 0.16 0.10 0.08 0.11 0.12 0.12 0.12 0.10 0.11 0.15 0.21 0.22 0.21 0.13 0.07 0.10 0.10 0.04 0.00 0.01 0.04 0.16 0.26 0.22
0.00 0.00 0.00 0.00 0.00 0.00 0.00 0.00 0.00 0.00 0.06 0.13 0.22 0.17 0.15 0.10 0.16 0.20 0.27 0.24 0.25 0.19 0.15 0.09 0.07 0.10 0.10 0.09 0.12 0.16 0.23 0.21 0.15 0.06 0.07 0.18 0.14 0.05 0.02 0.01 0.02 0.16 0.17
0.00 0.00 0.00 0.00 0.00 0.00 0.00 0.00 0.00 0.00 0.03 0.07 0.09 0.29 0.36 0.32 0.32 0.29 0.22 0.26 0.33 0.29 0.22 0.15 0.08 0.06 0.07 0.08 0.10 0.13 0.20 0.18 0.20 0.18 0.13 0.14 0.24 0.14 0.05 0.02 0.02 0.05 0.08
0.00 0.00 0.00 0.00 0.00 0.00 0.00 0.00 0.00 0.00 0.00 0.01 0.05 0.21 0.37 0.44 0.54 0.53 0.45 0.32 0.34 0.30 0.24 0.23 0.19 0.15 0.13 0.09 0.07 0.08 0.16 0.26 0.26 0.24 0.16 0.10 0.16 0.21 0.09 0.04 0.02 0.02 0.04
0.00 0.00 0.00 0.00 0.00 0.00 0.00 0.00 0.00 0.00 0.00 0.00 0.00 0.07 0.27 0.51 0.64 0.85 0.86 0.72 0.45 0.34 0.25 0.26 0.28 0.26 0.30 0.37 0.39 0.25 0.15 0.24 0.28 0.28 0.24 0.17 0.16 0.12 0.18 0.12 0.15 0.05 0.03
0.00 0.00 0.00 0.00 0.00 0.00 0.00 0.00 0.00 0.00 0.00 0.00 0.00 0.01 0.07 0.15 0.40 0.67 0.86 0.98 1.17 0.86 0.58 0.41 0.41 0.41 0.63 0.87 0.89 0.60 0.41 0.42 0.31 0.29 0.29 0.26 0.16 0.09 0.17 0.21 0.19 0.17 0.11
0.00 0.00 0.00 0.00 0.00 0.00 0.00 0.00 0.00 0.00 0.00 0.00 0.00 0.00 0.01 0.06 0.17 0.36 0.69 0.73 0.67 0.83 0.96 0.99 1.07 1.06 0.93 0.90 0.96 1.14 1.07 0.74 0.59 0.39 0.29 0.28 0.42 0.53 0.46 0.47 0.47 0.36 0.21
0.00 0.00 0.00 0.00 0.00 0.00 0.00 0.00 0.00 0.00 0.01 0.01 0.02 0.01 0.01 0.03 0.16 0.27 0.35 0.39 0.68 0.86 0.58 0.71 0.58 0.77 0.99 1.13 1.33 0.96 0.63 0.51 0.44 0.41 0.39 0.40 0.34 0.51 0.81 1.36 1.49 1.60 1.56
0.00 0.00 0.00 0.00 0.00 0.00 0.00 0.00 0.00 0.01 0.02 0.02 0.02 0.02 0.01 0.02 0.05 0.23 0.37 0.41 0.49 0.55 0.55 0.56 0.37 0.27 0.30 0.39 0.41 0.72 1.09 0.92 0.51 0.28 0.22 0.17 0.19 0.20 0.30 0.31 0.63 1.01 1.00
0.00 0.00 0.00 0.00 0.00 0.00 0.00 0.00 0.01 0.02 0.02 0.02 0.03 0.03 0.02 0.03 0.05 0.20 0.35 0.45 0.87 0.98 0.75 0.55 0.80 0.71 0.49 0.38 0.39 0.52 0.42 0.39 0.48 0.56 0.41 0.24 0.16 0.10 0.12 0.15 0.19 0.28 0.27

GFSSE_prec_precacc24_162.txt.gz
Total_Precipitation_Accumulation
0.05 0.01 0.01 0.00 0.00 0.00 0.00 0.00 0.00 0.00 0.00 0.00 0.00 0.00 0.00 0.00 0.00 0.00 0.00 0.00 0.00 0.01 0.00 0.00 0.00 0.00 0.00 0.00 0.00 0.00 0.00 0.00 0.00 0.00 0.01 0.05 0.06 0.04 0.03 0.05 0.13 0.41 0.31
0.11 0.05 0.01 0.01 0.00 0.00 0.00 0.00 0.00 0.00 0.00 0.00 0.00 0.00 0.00 0.00 0.00 0.00 0.00 0.01 0.01 0.02 0.01 0.00 0.00 0.00 0.00 0.00 0.00 0.00 0.00 0.00 0.00 0.00 0.02 0.05 0.13 0.15 0.16 0.09 0.20 0.66 0.30
0.07 0.03 0.01 0.01 0.02 0.01 0.01 0.00 0.00 0.00 0.00 0.00 0.00 0.00 0.00 0.00 0.00 0.00 0.00 0.00 0.00 0.01 0.02 0.00 0.00 0.00 0.00 0.01 0.00 0.00 0.00 0.00 0.00 0.00 0.05 0.15 0.09 0.16 0.14 0.09 0.13 0.30 0.38
0.03 0.02 0.01 0.01 0.01 0.01 0.01 0.01 0.01 0.01 0.00 0.00 0.00 0.00 0.00 0.00 0.00 0.00 0.00 0.00 0.01 0.01 0.01 0.01 0.01 0.00 0.00 0.00 0.00 0.00 0.00 0.00 0.00 0.00 0.03 0.21 0.34 0.25 0.18 0.09 0.13 0.23 0.22
0.04 0.01 0.02 0.02 0.01 0.01 0.01 0.00 0.01 0.01 0.01 0.01 0.00 0.00 0.03 0.06 0.04 0.03 0.01 0.00 0.01 0.04 0.03 0.04 0.03 0.00 0.00 0.00 0.00 0.00 0.00 0.00 0.00 0.00 0.04 0.27 0.39 0.17 0.18 0.14 0.13 0.16 0.16
0.01 0.01 0.01 0.03 0.03 0.02 0.01 0.01 0.01 0.00 0.00 0.00 0.00 0.02 0.06 0.12 0.12 0.07 0.01 0.00 0.00 0.02 0.05 0.04 0.02 0.00 0.00 0.00 0.00 0.00 0.00 0.00 0.00 0.00 0.03 0.22 0.26 0.27 0.21 0.19 0.15 0.11 0.09
0.00 0.00 0.00 0.00 0.01 0.01 0.01 0.01 0.01 0.01 0.00 0.00 0.00 0.04 0.07 0.07 0.07 0.05 0.02 0.00 0.00 0.00 0.01 0.02 0.00 0.00 0.00 0.00 0.00 0.00 0.00 0.00 0.00 0.00 0.02 0.21 0.44 0.30 0.30 0.18 0.15 0.13 0.12
0.00 0.00 0.00 0.00 0.00 0.01 0.01 0.02 0.01 0.03 0.06 0.02 0.04 0.04 0.09 0.09 0.08 0.06 0.04 0.02 0.00 0.00 0.00 0.00 0.00 0.00 0.00 0.00 0.00 0.00 0.00 0.00 0.00 0.00 0.01 0.03 0.07 0.14 0.32 0.25 0.15 0.11 0.13
0.00 0.00 0.00 0.00 0.00 0.00 0.00 0.03 0.07 0.06 0.14 0.11 0.12 0.16 0.11 0.10 0.09 0.09 0.08 0.07 0.03 0.01 0.01 0.00 0.00 0.00 0.00 0.00 0.00 0.00 0.00 0.00 0.00 0.00 0.00 0.00 0.07 0.16 0.25 0.15 0.14 0.10 0.09
0.00 0.00 0.00 0.00 0.00 0.00 0.00 0.00 0.11 0.14 0.11 0.10 0.14 0.24 0.22 0.16 0.16 0.13 0.16 0.12 0.08 0.04 0.02 0.01 0.01 0.01 0.00 0.00 0.00 0.00 0.00 0.00 0.00 0.00 0.00 0.00 0.04 0.12 0.22 0.20 0.14 0.10 0.05
0.00 0.00 0.00 0.00 0.00 0.00 0.00 0.00 0.05 0.14 0.13 0.11 0.10 0.16 0.20 0.16 0.25 0.33 0.27 0.30 0.24 0.15 0.10 0.07 0.05 0.03 0.00 0.00 0.00 0.00 0.00 0.00 0.00 0.00 0.00 0.00 0.06 0.15 0.21 0.11 0.06 0.06 0.02
0.00 0.00 0.00 0.00 0.00 0.00 0.00 0.00 0.01 0.05 0.08 0.08 0.08 0.10 0.12 0.08 0.10 0.11 0.21 0.31 0.22 0.14 0.10 0.07 0.05 0.04 0.00 0.00 0.00 0.00 0.00 0.00 0.00 0.01 0.00 0.01 0.10 0.11 0.14 0.08 0.05 0.04 0.01
0.00 0.00 0.00 0.00 0.00 0.00 0.00 0.00 0.02 0.02 0.03 0.04 0.04 0.04 0.04 0.06 0.04 0.03 0.07 0.13 0.19 0.25 0.13 0.14 0.09 0.05 0.05 0.06 0.04 0.01 0.00 0.00 0.00 0.02 0.01 0.00 0.05 0.15 0.11 0.08 0.05 0.02 0.01
0.00 0.00 0.00 0.00 0.00 0.00 0.00 0.00 0.01 0.05 0.04 0.01 0.01 0.06 0.07 0.07 0.07 0.05 0.05 0.06 0.08 0.16 0.19 0.29 0.24 0.21 0.21 0.17 0.09 0.04 0.12 0.03 0.01 0.03 0.01 0.00 0.03 0.10 0.09 0.14 0.04 0.02 0.01
0.00 0.00 0.00 0.00 0.00 0.00 0.00 0.00 0.00 0.03 0.06 0.08 0.06 0.06 0.07 0.10 0.10 0.11 0.06 0.07 0.05 0.09 0.12 0.15 0.15 0.20 0.26 0.32 0.24 0.20 0.14 0.12 0.07 0.09 0.07 0.02 0.02 0.13 0.25 0.16 0.11 0.05 0.02
0.00 0.00 0.00 0.00 0.00 0.00 0.00 0.00 0.00 0.00 0.02 0.08 0.08 0.06 0.15 0.16 0.15 0.18 0.13 0.11 0.08 0.09 0.13 0.14 0.11 0.11 0.13 0.21 0.23 0.23 0.15 0.13 0.10 0.08 0.09 0.04 0.05 0.03 0.16 0.31 0.29 0.15 0.07
0.00 0.00 0.00 0.00 0.00 0.00 0.00 0.00 0.00 0.00 0.00 0.01 0.05 0.06 0.08 0.18 0.18 0.21 0.22 0.16 0.10 0.08 0.11 0.12 0.12 0.12 0.10 0.11 0.15 0.21 0.21 0.20 0.13 0.07 0.10 0.10 0.04 0.03 0.03 0.08 0.23 0.29 0.23
0.00 0.00 0.00 0.00 0.00 0.00 0.00 0.00 0.00 0.00 0.00 0.00 0.01 0.02 0.05 0.06 0.14 0.20 0.27 0.24 0.25 0.19 0.15 0.09 0.07 0.10 0.10 0.09 0.11 0.15 0.22 0.21 0.15 0.06 0.07 0.19 0.15 0.06 0.10 0.11 0.15 0.26 0.22
0.00 0.00 0.00 0.00 0.00 0.00 0.00 0.00 0.00 0.00 0.00 0.00 0.00 0.01 0.04 0.08 0.19 0.26 0.22 0.26 0.33 0.29 0.22 0.15 0.08 0.06 0.07 0.08 0.10 0.13 0.20 0.18 0.20 0.18 0.13 0.14 0.25 0.15 0.07 0.08 0.15 0.22 0.23
0.00 0.00 0.00 0.00 0.00 0.00 0.00 0.00 0.00 0.00 0.00 0.00 0.00 0.00 0.02 0.04 0.18 0.38 0.42 0.32 0.34 0.30 0.24 0.23 0.19 0.15 0.13 0.09 0.07 0.08 0.16 0.26 0.26 0.24 0.16 0.10 0.16 0.21 0.09 0.05 0.10 0.16 0.23
0.00 0.00 0.00 0.00 0.00 0.00 0.00 0.00 0.00 0.00 0.00 0.00 0.00 0.00 0.00 0.01 0.10 0.51 0.71 0.68 0.45 0.34 0.25 0.26 0.28 0.26 0.30 0.37 0.39 0.25 0.15 0.24 0.28 0.28 0.24 0.17 0.16 0.12 0.19 0.13 0.19 0.16 0.25
0.00 0.00 0.00 0.00 0.00 0.00 0.00 0.00 0.00 0.00 0.00 0.00 0.00 0.00 0.00 0.00 0.03 0.13 0.52 0.90 1.15 0.85 0.57 0.40 0.41 0.41 0.63 0.87 0.89 0.60 0.41 0.42 0.31 0.29 0.29 0.26 0.16 0.09 0.17 0.22 0.22 0.24 0.31
0.00 0.00 0.00 0.00 0.00 0.00 0.00 0.00 0.00 0.00 0.00 0.00 0.00 0.00 0.00 0.00 0.01 0.05 0.32 0.62 0.65 0.82 0.96 0.99 1.07 1.06 0.93 0.90 0.96 1.16 1.08 0.75 0.59 0.39 0.29 0.28 0.42 0.53 0.47 0.47 0.51 0.44 0.35
0.00 0.00 0.00 0.00 0.00 0.00 0.00 0.00 0.00 0.00 0.01 0.01 0.02 0.01 0.00 0.00 0.01 0.03 0.11 0.23 0.60 0.83 0.57 0.71 0.58 0.77 0.99 1.12 1.33 0.96 0.64 0.52 0.45 0.41 0.39 0.40 0.34 0.51 0.82 1.37 1.51 1.65 1.67
0.00 0.00 0.00 0.00 0.00 0.00 0.00 0.00 0.00 0.01 0.02 0.02 0.02 0.02 0.01 0.01 0.00 0.02 0.05 0.08 0.24 0.45 0.52 0.55 0.37 0.28 0.31 0.40 0.42 0.73 1.09 0.92 0.52 0.28 0.22 0.17 0.19 0.21 0.30 0.31 0.64 1.03 1.06
0.00 0.00 0.00 0.00 0.00 0.00 0.00 0.00 0.01 0.02 0.01 0.02 0.03 0.03 0.02 0.02 0.02 0.02 0.02 0.05 0.12 0.44 0.65 0.52 0.78 0.71 0.49 0.38 0.40 0.53 0.43 0.41 0.50 0.58 0.42 0.24 0.16 0.10 0.12 0.16 0.20 0.30 0.30

GFSSE_prec_precacc24_165.txt.gz
Total_Precipitation_Accumulation
0.06 0.01 0.02 0.01 0.00 0.00 0.00 0.00 0.00 0.00 0.00 0.00 0.00 0.00 0.00 0.00 0.00 0.00 0.00 0.00 0.00 0.01 0.00 0.00 0.00 0.01 0.01 0.00 0.00 0.00 0.00 0.00 0.00 0.00 0.02 0.05 0.07 0.05 0.02 0.05 0.10 0.36 0.20
0.11 0.06 0.01 0.01 0.01 0.00 0.00 0.00 0.00 0.00 0.00 0.00 0.00 0.00 0.00 0.00 0.00 0.00 0.00 0.01 0.01 0.02 0.01 0.00 0.00 0.00 0.00 0.00 0.00 0.00 0.00 0.00 0.00 0.00 0.02 0.06 0.11 0.13 0.14 0.10 0.22 0.60 0.24
0.07 0.05 0.01 0.01 0.02 0.01 0.01 0.01 0.00 0.00 0.00 0.00 0.00 0.00 0.00 0.00 0.00 0.00 0.00 0.00 0.00 0.01 0.02 0.00 0.00 0.00 0.00 0.00 0.00 0.00 0.00 0.00 0.00 0.00 0.05 0.15 0.09 0.19 0.16 0.16 0.19 0.30 0.36
0.08 0.04 0.01 0.01 0.01 0.01 0.02 0.02 0.01 0.01 0.00 0.00 0.00 0.01 0.01 0.00 0.00 0.00 0.00 0.00 0.01 0.01 0.01 0.01 0.01 0.00 0.00 0.00 0.00 0.00 0.00 0.00 0.00 0.00 0.03 0.21 0.34 0.27 0.21 0.16 0.19 0.29 0.26
0.06 0.05 0.02 0.02 0.01 0.01 0.01 0.00 0.01 0.01 0.01 0.01 0.00 0.00 0.03 0.06 0.04 0.03 0.01 0.00 0.01 0.04 0.03 0.04 0.03 0.00 0.00 0.00 0.00 0.00 0.00 0.00 0.00 0.00 0.04 0.27 0.39 0.17 0.19 0.16 0.16 0.21 0.19
0.01 0.01 0.01 0.03 0.03 0.02 0.01 0.01 0.01 0.00 0.00 0.00 0.00 0.02 0.06 0.12 0.12 0.07 0.01 0.00 0.01 0.03 0.06 0.05 0.03 0.00 0.00 0.00 0.00 0.00 0.00 0.00 0.00 0.00 0.03 0.22 0.25 0.26 0.22 0.20 0.16 0.15 0.11
0.00 0.00 0.00 0.00 0.01 0.01 0.01 0.01 0.01 0.01 0.00 0.00 0.00 0.04 0.07 0.07 0.07 0.05 0.02 0.00 0.00 0.00 0.02 0.02 0.01 0.00 0.00 0.00 0.00 0.00 0.00 0.00 0.00 0.00 0.02 0.21 0.43 0.27 0.31 0.19 0.15 0.13 0.11
0.00 0.00 0.00 0.00 0.00 0.01 0.01 0.02 0.01 0.03 0.06 0.02 0.04 0.04 0.09 0.09 0.08 0.06 0.04 0.02 0.00 0.00 0.00 0.00 0.00 0.00 0.00 0.00 0.00 0.00 0.00 0.00 0.00 0.00 0.01 0.03 0.06 0.13 0.31 0.25 0.13 0.09 0.10
0.00 0.00 0.00 0.00 0.00 0.00 0.00 0.02 0.07 0.06 0.14 0.11 0.12 0.16 0.11 0.10 0.09 0.09 0.08 0.07 0.03 0.01 0.01 0.00 0.00 0.00 0.00 0.00 0.00 0.00 0.00 0.00 0.00 0.00 0.00 0.00 0.06 0.16 0.25 0.18 0.13 0.10 0.08
0.00 0.00 0.00 0.00 0.00 0.00 0.00 0.00 0.09 0.13 0.11 0.10 0.14 0.24 0.22 0.16 0.16 0.13 0.16 0.12 0.08 0.04 0.02 0.01 0.02 0.02 0.00 0.01 0.00 0.00 0.00 0.00 0.00 0.00 0.00 0.00 0.04 0.12 0.24 0.25 0.17 0.11 0.07
0.00 0.00 0.00 0.00 0.00 0.00 0.00 0.00 0.04 0.08 0.09 0.10 0.10 0.16 0.20 0.16 0.25 0.33 0.27 0.30 0.24 0.15 0.10 0.07 0.05 0.03 0.00 0.00 0.00 0.01 0.00 0.00 0.00 0.00 0.00 0.00 0.04 0.15 0.23 0.16 0.09 0.08 0.02
0.00 0.00 0.00 0.00 0.00 0.00 0.00 0.00 0.00 0.02 0.02 0.04 0.07 0.10 0.12 0.08 0.10 0.11 0.21 0.31 0.22 0.14 0.10 0.07 0.05 0.04 0.00 0.00 0.00 0.00 0.00 0.00 0.00 0.00 0.00 0.01 0.06 0.09 0.14 0.11 0.08 0.07 0.02
0.00 0.00 0.00 0.00 0.00 0.00 0.00 0.00 0.00 0.00 0.01 0.01 0.01 0.03 0.04 0.06 0.04 0.03 0.07 0.13 0.19 0.25 0.13 0.14 0.09 0.05 0.05 0.06 0.04 0.01 0.01 0.01 0.01 0.00 0.00 0.00 0.00 0.08 0.11 0.11 0.09 0.06 0.05
0.00 0.00 0.00 0.00 0.00 0.00 0.00 0.00 0.00 0.00 0.00 0.00 0.01 0.01 0.04 0.06 0.07 0.05 0.05 0.06 0.08 0.16 0.19 0.29 0.24 0.21 0.21 0.17 0.09 0.04 0.12 0.03 0.02 0.02 0.00 0.00 0.00 0.04 0.08 0.15 0.08 0.07 0.06
0.00 0.00 0.00 0.00 0.00 0.00 0.00 0.00 0.00 0.00 0.00 0.00 0.01 0.01 0.03 0.06 0.07 0.09 0.06 0.07 0.05 0.09 0.12 0.15 0.15 0.20 0.26 0.32 0.24 0.20 0.14 0.12 0.07 0.09 0.05 0.02 0.01 0.08 0.19 0.16 0.15 0.09 0.08
0.00 0.00 0.00 0.00 0.00 0.00 0.00 0.00 0.00 0.00 0.00 0.00 0.00 0.01 0.04 0.07 0.11 0.16 0.12 0.11 0.08 0.09 0.13 0.14 0.11 0.11 0.13 0.21 0.23 0.23 0.14 0.13 0.10 0.07 0.09 0.05 0.06 0.03 0.15 0.25 0.31 0.18 0.10
0.00 0.00 0.00 0.00 0.00 0.00 0.00 0.00 0.00 0.00 0.00 0.00 0.00 0.00 0.00 0.04 0.11 0.18 0.19 0.15 0.10 0.08 0.11 0.12 0.12 0.12 0.10 0.11 0.15 0.21 0.21 0.20 0.13 0.07 0.10 0.10 0.04 0.03 0.03 0.08 0.24 0.35 0.24
0.00 0.00 0.00 0.00 0.00 0.00 0.00 0.00 0.00 0.00 0.00 0.00 0.00 0.00 0.00 0.01 0.05 0.12 0.23 0.22 0.24 0.19 0.15 0.09 0.07 0.10 0.10 0.09 0.11 0.15 0.22 0.21 0.15 0.06 0.07 0.19 0.15 0.06 0.10 0.10 0.15 0.30 0.33
0.00 0.00 0.00 0.00 0.00 0.00 0.00 0.00 0.00 0.00 0.00 0.00 0.00 0.00 0.00 0.00 0.01 0.05 0.11 0.19 0.27 0.29 0.22 0.15 0.08 0.06 0.07 0.08 0.10 0.13 0.20 0.18 0.20 0.18 0.12 0.14 0.25 0.16 0.07 0.08 0.15 0.26 0.35
0.00 0.00 0.00 0.00 0.00 0.00 0.00 0.00 0.00 0.00 0.00 0.00 0.00 0.00 0.00 0.00 0.00 0.01 0.04 0.12 0.24 0.27 0.23 0.22 0.19 0.15 0.13 0.09 0.07 0.08 0.16 0.25 0.25 0.24 0.16 0.10 0.16 0.21 0.09 0.05 0.10 0.16 0.30
0.00 0.00 0.00 0.00 0.00 0.00 0.00 0.00 0.00 0.00 0.00 0.00 0.00 0.00 0.00 0.00 0.00 0.00 0.02 0.05 0.12 0.21 0.21 0.24 0.25 0.24 0.30 0.36 0.39 0.25 0.15 0.23 0.28 0.28 0.24 0.17 0.16 0.12 0.19 0.13 0.19 0.16 0.26
0.00 0.00 0.00 0.00 0.00 0.00 0.00 0.00 0.00 0.00 0.00 0.00 0.00 0.00 0.00 0.00 0.00 0.00 0.01 0.03 0.12 0.41 0.40 0.32 0.38 0.39 0.62 0.86 0.89 0.60 0.40 0.42 0.31 0.29 0.29 0.26 0.16 0.09 0.17 0.22 0.22 0.24 0.33
0.00 0.00 0.00 0.00 0.00 0.00 0.00 0.00 0.00 0.00 0.00 0.00 0.00 0.00 0.00 0.00 0.00 0.01 0.02 0.02 0.04 0.18 0.50 0.82 0.99 1.02 0.92 0.89 0.95 1.16 1.08 0.75 0.59 0.39 0.29 0.28 0.42 0.53 0.47 0.48 0.52 0.45 0.36
0.00 0.00 0.00 0.00 0.00 0.00 0.00 0.00 0.00 0.00 0.01 0.01 0.01 0.01 0.00 0.00 0.00 0.01 0.02 0.02 0.02 0.05 0.17 0.50 0.41 0.66 0.94 1.12 1.32 0.96 0.64 0.53 0.47 0.41 0.39 0.40 0.34 0.51 0.82 1.37 1.51 1.66 1.69
0.00 0.00 0.00 0.00 0.00 0.00 0.00 0.00 0.00 0.01 0.01 0.01 0.02 0.02 0.01 0.01 0.00 0.01 0.03 0.02 0.03 0.04 0.14 0.20 0.15 0.16 0.25 0.37 0.42 0.72 1.09 0.93 0.53 0.30 0.23 0.17 0.19 0.21 0.30 0.31 0.64 1.03 1.06
0.00 0.00 0.00 0.00 0.00 0.00 0.00 0.00 0.01 0.01 0.01 0.01 0.02 0.03 0.01 0.02 0.02 0.02 0.02 0.02 0.02 0.03 0.05 0.11 0.22 0.36 0.35 0.29 0.36 0.50 0.43 0.42 0.51 0.59 0.44 0.25 0.16 0.10 0.12 0.16 0.20 0.30 0.30

GFSSE_prec_precacc24_168.txt.gz
Total_Precipitation_Accumulation
0.06 0.01 0.02 0.01 0.00 0.00 0.00 0.00 0.00 0.00 0.00 0.00 0.00 0.00 0.00 0.00 0.00 0.00 0.00 0.00 0.00 0.01 0.00 0.00 0.00 0.01 0.02 0.00 0.00 0.00 0.00 0.00 0.00 0.00 0.02 0.05 0.08 0.07 0.03 0.03 0.08 0.33 0.14
0.11 0.07 0.02 0.02 0.01 0.00 0.00 0.00 0.00 0.00 0.00 0.00 0.00 0.00 0.00 0.00 0.00 0.00 0.00 0.01 0.01 0.03 0.01 0.00 0.00 0.00 0.00 0.00 0.00 0.00 0.00 0.00 0.00 0.00 0.01 0.05 0.10 0.15 0.13 0.12 0.22 0.57 0.21
0.08 0.05 0.01 0.02 0.02 0.02 0.01 0.01 0.00 0.00 0.00 0.00 0.00 0.00 0.00 0.00 0.00 0.00 0.00 0.00 0.00 0.01 0.02 0.01 0.00 0.00 0.00 0.00 0.00 0.00 0.00 0.00 0.00 0.00 0.05 0.15 0.09 0.18 0.16 0.20 0.21 0.33 0.36
0.12 0.04 0.02 0.01 0.01 0.01 0.02 0.02 0.02 0.01 0.00 0.00 0.01 0.02 0.01 0.01 0.01 0.00 0.01 0.00 0.01 0.01 0.01 0.01 0.01 0.00 0.00 0.00 0.00 0.00 0.00 0.00 0.00 0.00 0.03 0.21 0.34 0.25 0.21 0.16 0.20 0.31 0.33
0.22 0.08 0.02 0.03 0.01 0.01 0.01 0.01 0.01 0.01 0.01 0.01 0.00 0.00 0.03 0.06 0.05 0.03 0.01 0.00 0.02 0.05 0.04 0.04 0.03 0.01 0.00 0.00 0.00 0.00 0.00 0.00 0.00 0.00 0.04 0.27 0.39 0.16 0.21 0.17 0.17 0.22 0.21
0.11 0.05 0.01 0.03 0.03 0.02 0.01 0.01 0.01 0.00 0.00 0.00 0.00 0.02 0.06 0.12 0.12 0.07 0.01 0.00 0.01 0.04 0.06 0.06 0.03 0.01 0.00 0.00 0.00 0.00 0.00 0.00 0.00 0.00 0.03 0.22 0.25 0.24 0.25 0.21 0.16 0.15 0.10
0.02 0.05 0.00 0.00 0.01 0.01 0.01 0.01 0.01 0.01 0.00 0.00 0.00 0.04 0.07 0.07 0.07 0.05 0.02 0.00 0.00 0.00 0.02 0.02 0.01 0.00 0.00 0.00 0.00 0.00 0.00 0.00 0.00 0.00 0.02 0.21 0.43 0.24 0.37 0.25 0.16 0.13 0.09
0.00 0.00 0.00 0.00 0.00 0.01 0.01 0.01 0.01 0.02 0.06 0.02 0.04 0.04 0.09 0.09 0.08 0.06 0.04 0.02 0.00 0.00 0.00 0.00 0.00 0.00 0.00 0.00 0.00 0.00 0.00 0.00 0.00 0.00 0.01 0.03 0.06 0.11 0.28 0.26 0.13 0.08 0.08
0.00 0.00 0.00 0.00 0.00 0.00 0.00 0.01 0.04 0.01 0.09 0.10 0.12 0.16 0.11 0.10 0.09 0.09 0.08 0.07 0.03 0.01 0.01 0.00 0.00 0.00 0.00 0.00 0.00 0.00 0.00 0.00 0.00 0.00 0.00 0.00 0.05 0.14 0.22 0.20 0.15 0.09 0.07
0.01 0.01 0.00 0.00 0.00 0.00 0.00 0.00 0.04 0.04 0.02 0.04 0.12 0.24 0.22 0.16 0.16 0.13 0.16 0.12 0.08 0.04 0.02 0.01 0.02 0.02 0.00 0.02 0.02 0.01 0.00 0.00 0.00 0.00 0.00 0.00 0.02 0.10 0.19 0.22 0.17 0.12 0.09
0.00 0.00 0.00 0.00 0.00 0.00 0.00 0.00 0.00 0.02 0.03 0.02 0.01 0.08 0.17 0.15 0.25 0.33 0.27 0.30 0.24 0.15 0.10 0.07 0.05 0.03 0.00 0.00 0.00 0.05 0.01 0.00 0.00 0.00 0.00 0.00 0.02 0.11 0.18 0.14 0.07 0.08 0.05
0.00 0.00 0.00 0.00 0.00 0.00 0.00 0.00 0.00 0.00 0.00 0.02 0.01 0.00 0.00 0.03 0.09 0.11 0.21 0.31 0.22 0.14 0.10 0.07 0.05 0.04 0.00 0.00 0.00 0.00 0.00 0.00 0.01 0.00 0.00 0.00 0.01 0.04 0.12 0.10 0.06 0.06 0.05
0.00 0.00 0.00 0.00 0.00 0.00 0.00 0.00 0.00 0.00 0.00 0.00 0.00 0.00 0.00 0.01 0.02 0.03 0.07 0.13 0.19 0.25 0.13 0.14 0.09 0.05 0.05 0.06 0.04 0.01 0.01 0.01 0.01 0.01 0.00 0.00 0.00 0.06 0.10 0.10 0.08 0.06 0.07
0.00 0.00 0.00 0.00 0.00 0.00 0.00 0.00 0.00 0.00 0.00 0.00 0.00 0.00 0.00 0.00 0.01 0.02 0.04 0.06 0.08 0.16 0.19 0.29 0.24 0.21 0.21 0.17 0.09 0.04 0.12 0.03 0.02 0.02 0.01 0.01 0.00 0.03 0.07 0.15 0.09 0.08 0.06
0.00 0.00 0.00 0.00 0.00 0.00 0.00 0.00 0.00 0.00 0.00 0.00 0.00 0.00 0.00 0.00 0.01 0.02 0.02 0.04 0.05 0.09 0.12 0.15 0.15 0.20 0.26 0.32 0.24 0.20 0.14 0.12 0.07 0.09 0.05 0.02 0.02 0.06 0.14 0.14 0.15 0.11 0.10
0.00 0.00 0.00 0.00 0.00 0.00 0.00 0.00 0.00 0.00 0.00 0.00 0.00 0.00 0.00 0.00 0.00 0.02 0.05 0.07 0.07 0.09 0.13 0.14 0.11 0.11 0.13 0.21 0.23 0.23 0.14 0.13 0.10 0.07 0.09 0.05 0.05 0.02 0.11 0.21 0.25 0.20 0.14
0.00 0.00 0.00 0.00 0.00 0.00 0.00 0.00 0.00 0.00 0.00 0.00 0.00 0.00 0.00 0.00 0.00 0.00 0.00 0.04 0.09 0.07 0.09 0.11 0.12 0.12 0.10 0.11 0.15 0.21 0.21 0.20 0.13 0.07 0.10 0.10 0.04 0.03 0.03 0.07 0.21 0.31 0.24
0.00 0.00 0.00 0.00 0.00 0.00 0.00 0.00 0.00 0.00 0.00 0.00 0.00 0.00 0.00 0.00 0.00 0.00 0.00 0.00 0.05 0.13 0.13 0.09 0.06 0.09 0.10 0.09 0.11 0.15 0.22 0.21 0.15 0.06 0.07 0.19 0.15 0.06 0.10 0.10 0.14 0.29 0.32
0.00 0.00 0.00 0.00 0.00 0.00 0.00 0.00 0.00 0.00 0.00 0.00 0.00 0.00 0.00 0.00 0.00 0.00 0.00 0.00 0.01 0.08 0.19 0.15 0.08 0.06 0.07 0.08 0.10 0.13 0.20 0.18 0.20 0.18 0.12 0.14 0.25 0.16 0.07 0.08 0.15 0.25 0.35
0.00 0.00 0.00 0.00 0.00 0.00 0.00 0.00 0.00 0.00 0.00 0.00 0.00 0.00 0.00 0.00 0.00 0.00 0.00 0.00 0.00 0.02 0.08 0.20 0.18 0.15 0.12 0.09 0.07 0.08 0.16 0.25 0.25 0.23 0.16 0.10 0.16 0.21 0.09 0.05 0.10 0.16 0.29
0.00 0.00 0.00 0.00 0.00 0.00 0.00 0.00 0.00 0.00 0.00 0.00 0.00 0.00 0.00 0.00 0.00 0.00 0.00 0.01 0.00 0.01 0.02 0.07 0.20 0.22 0.28 0.33 0.34 0.24 0.15 0.23 0.28 0.28 0.24 0.16 0.16 0.12 0.19 0.13 0.19 0.16 0.26
0.00 0.00 0.00 0.00 0.00 0.00 0.00 0.00 0.00 0.00 0.00 0.00 0.00 0.00 0.00 0.00 0.00 0.00 0.01 0.01 0.01 0.01 0.01 0.01 0.07 0.28 0.59 0.81 0.85 0.59 0.40 0.41 0.30 0.29 0.29 0.25 0.16 0.09 0.17 0.22 0.23 0.24 0.33
0.00 0.00 0.00 0.00 0.00 0.00 0.00 0.00 0.00 0.00 0.00 0.00 0.00 0.00 0.00 0.00 0.00 0.01 0.01 0.02 0.01 0.02 0.02 0.01 0.02 0.25 0.70 0.83 0.86 1.14 1.09 0.74 0.59 0.39 0.29 0.28 0.42 0.53 0.47 0.48 0.52 0.45 0.36
0.00 0.00 0.00 0.00 0.00 0.00 0.00 0.00 0.00 0.00 0.00 0.01 0.01 0.00 0.00 0.00 0.00 0.01 0.02 0.02 0.02 0.02 0.02 0.02 0.02 0.06 0.50 1.00 1.20 0.88 0.63 0.55 0.48 0.42 0.39 0.40 0.34 0.51 0.82 1.37 1.51 1.66 1.69
0.00 0.00 0.00 0.00 0.00 0.00 0.00 0.00 0.00 0.01 0.01 0.00 0.01 0.01 0.00 0.00 0.00 0.01 0.02 0.02 0.02 0.03 0.04 0.03 0.03 0.04 0.05 0.13 0.31 0.64 1.02 0.91 0.54 0.32 0.23 0.17 0.19 0.21 0.30 0.31 0.64 1.03 1.06
0.00 0.00 0.00 0.00 0.00 0.00 0.00 0.00 0.00 0.01 0.01 0.01 0.01 0.01 0.01 0.01 0.01 0.01 0.02 0.02 0.02 0.02 0.03 0.02 0.03 0.04 0.04 0.06 0.16 0.28 0.29 0.38 0.50 0.60 0.45 0.25 0.16 0.10 0.12 0.16 0.21 0.31 0.30

GFSSE_prec_precacc24_171.txt.gz
Total_Precipitation_Accumulation
0.06 0.01 0.03 0.02 0.01 0.01 0.01 0.00 0.00 0.00 0.00 0.00 0.00 0.00 0.00 0.00 0.00 0.00 0.00 0.00 0.00 0.01 0.00 0.00 0.00 0.01 0.02 0.00 0.00 0.00 0.00 0.00 0.00 0.00 0.02 0.05 0.08 0.07 0.03 0.03 0.08 0.32 0.15
0.12 0.07 0.02 0.03 0.02 0.01 0.00 0.00 0.00 0.00 0.00 0.00 0.00 0.00 0.00 0.00 0.00 0.00 0.00 0.01 0.01 0.03 0.01 0.00 0.00 0.00 0.00 0.00 0.00 0.00 0.00 0.00 0.00 0.00 0.01 0.05 0.10 0.14 0.11 0.12 0.22 0.57 0.21
0.08 0.05 0.01 0.02 0.03 0.02 0.02 0.02 0.01 0.01 0.01 0.01 0.01 0.01 0.01 0.01 0.00 0.00 0.01 0.00 0.00 0.01 0.02 0.01 0.00 0.00 0.00 0.00 0.00 0.00 0.00 0.00 0.00 0.00 0.05 0.15 0.09 0.17 0.16 0.20 0.22 0.30 0.37
0.13 0.04 0.02 0.01 0.02 0.02 0.03 0.03 0.02 0.02 0.01 0.00 0.01 0.02 0.02 0.02 0.02 0.01 0.02 0.02 0.02 0.02 0.02 0.02 0.02 0.02 0.00 0.00 0.00 0.00 0.00 0.00 0.00 0.00 0.03 0.21 0.34 0.25 0.25 0.18 0.21 0.32 0.37
0.21 0.07 0.01 0.01 0.00 0.00 0.01 0.01 0.01 0.01 0.01 0.01 0.00 0.00 0.04 0.07 0.05 0.03 0.01 0.01 0.02 0.06 0.05 0.06 0.06 0.03 0.00 0.00 0.00 0.00 0.00 0.00 0.00 0.00 0.04 0.27 0.39 0.15 0.23 0.19 0.17 0.17 0.21
0.11 0.08 0.02 0.02 0.02 0.01 0.01 0.01 0.01 0.00 0.00 0.00 0.00 0.02 0.06 0.12 0.12 0.07 0.01 0.00 0.01 0.04 0.06 0.06 0.03 0.01 0.00 0.00 0.00 0.00 0.00 0.00 0.00 0.00 0.03 0.22 0.25 0.20 0.25 0.26 0.18 0.14 0.08
0.06 0.12 0.08 0.01 0.00 0.00 0.00 0.00 0.00 0.01 0.00 0.00 0.00 0.04 0.06 0.07 0.07 0.05 0.02 0.00 0.00 0.00 0.02 0.02 0.01 0.00 0.00 0.00 0.00 0.00 0.00 0.00 0.00 0.00 0.02 0.21 0.43 0.18 0.29 0.23 0.17 0.14 0.08
0.02 0.04 0.07 0.00 0.00 0.00 0.00 0.00 0.00 0.00 0.02 0.01 0.04 0.04 0.07 0.07 0.07 0.06 0.04 0.02 0.00 0.00 0.00 0.00 0.00 0.00 0.00 0.00 0.00 0.00 0.00 0.00 0.00 0.00 0.01 0.03 0.05 0.07 0.17 0.19 0.12 0.07 0.08
0.00 0.00 0.00 0.00 0.01 0.01 0.01 0.00 0.00 0.00 0.04 0.05 0.09 0.10 0.05 0.06 0.07 0.09 0.08 0.07 0.03 0.01 0.01 0.00 0.00 0.00 0.00 0.00 0.00 0.00 0.00 0.00 0.00 0.00 0.00 0.00 0.05 0.12 0.15 0.16 0.13 0.08 0.07
0.01 0.01 0.01 0.02 0.01 0.01 0.00 0.00 0.00 0.00 0.00 0.03 0.09 0.16 0.12 0.06 0.11 0.12 0.16 0.12 0.08 0.04 0.02 0.01 0.02 0.02 0.00 0.02 0.02 0.01 0.01 0.02 0.01 0.00 0.00 0.00 0.02 0.07 0.14 0.17 0.14 0.10 0.09
0.01 0.01 0.03 0.02 0.01 0.00 0.00 0.00 0.00 0.00 0.00 0.00 0.00 0.03 0.06 0.03 0.12 0.22 0.25 0.30 0.24 0.14 0.10 0.07 0.05 0.03 0.00 0.00 0.00 0.05 0.02 0.00 0.01 0.02 0.00 0.06 0.04 0.07 0.11 0.11 0.06 0.08 0.05
0.00 0.00 0.01 0.00 0.00 0.00 0.00 0.00 0.00 0.00 0.00 0.00 0.00 0.00 0.00 0.00 0.00 0.04 0.11 0.24 0.21 0.13 0.10 0.07 0.05 0.04 0.00 0.00 0.00 0.00 0.00 0.00 0.01 0.01 0.01 0.04 0.03 0.04 0.08 0.09 0.05 0.05 0.05
0.00 0.00 0.00 0.00 0.00 0.00 0.00 0.00 0.00 0.00 0.00 0.00 0.00 0.00 0.00 0.00 0.00 0.00 0.03 0.08 0.17 0.25 0.12 0.14 0.09 0.05 0.05 0.06 0.04 0.01 0.01 0.01 0.01 0.01 0.00 0.00 0.01 0.07 0.09 0.09 0.06 0.06 0.06
0.00 0.00 0.00 0.00 0.00 0.00 0.00 0.00 0.00 0.00 0.00 0.00 0.00 0.00 0.00 0.00 0.00 0.00 0.01 0.02 0.05 0.14 0.19 0.29 0.24 0.21 0.21 0.17 0.09 0.04 0.12 0.03 0.02 0.02 0.01 0.01 0.00 0.01 0.07 0.13 0.11 0.11 0.06
0.00 0.00 0.00 0.00 0.00 0.00 0.00 0.00 0.00 0.00 0.00 0.00 0.00 0.00 0.00 0.00 0.00 0.00 0.00 0.01 0.01 0.05 0.09 0.14 0.15 0.20 0.26 0.32 0.24 0.20 0.14 0.12 0.07 0.09 0.05 0.02 0.02 0.05 0.09 0.14 0.14 0.13 0.13
0.00 0.00 0.00 0.00 0.00 0.00 0.00 0.00 0.00 0.00 0.00 0.00 0.00 0.00 0.00 0.00 0.00 0.00 0.00 0.00 0.00 0.03 0.08 0.11 0.09 0.10 0.12 0.21 0.23 0.23 0.14 0.13 0.10 0.07 0.09 0.05 0.04 0.02 0.08 0.15 0.22 0.20 0.15
0.00 0.00 0.00 0.00 0.00 0.00 0.00 0.00 0.00 0.00 0.00 0.00 0.00 0.00 0.00 0.00 0.00 0.00 0.00 0.00 0.00 0.00 0.03 0.07 0.09 0.10 0.10 0.11 0.15 0.21 0.21 0.20 0.13 0.07 0.10 0.10 0.04 0.03 0.03 0.06 0.18 0.24 0.20
0.00 0.00 0.00 0.00 0.00 0.00 0.00 0.00 0.00 0.00 0.00 0.00 0.00 0.00 0.00 0.00 0.00 0.00 0.00 0.00 0.00 0.00 0.00 0.01 0.04 0.07 0.09 0.09 0.11 0.15 0.22 0.21 0.15 0.06 0.07 0.19 0.15 0.06 0.10 0.10 0.14 0.28 0.30
0.00 0.00 0.00 0.00 0.00 0.00 0.00 0.00 0.00 0.00 0.00 0.00 0.00 0.00 0.00 0.00 0.00 0.00 0.00 0.00 0.00 0.00 0.00 0.00 0.02 0.05 0.06 0.07 0.10 0.13 0.20 0.18 0.20 0.18 0.12 0.14 0.25 0.16 0.07 0.08 0.15 0.25 0.35
0.00 0.00 0.00 0.00 0.00 0.00 0.00 0.00 0.00 0.00 0.00 0.00 0.00 0.00 0.00 0.00 0.00 0.00 0.00 0.00 0.00 0.00 0.00 0.00 0.00 0.03 0.10 0.08 0.07 0.08 0.16 0.25 0.25 0.23 0.15 0.10 0.16 0.21 0.08 0.05 0.10 0.16 0.29
0.00 0.00 0.00 0.00 0.00 0.00 0.00 0.00 0.00 0.00 0.00 0.00 0.00 0.00 0.00 0.00 0.00 0.00 0.00 0.01 0.00 0.01 0.00 0.00 0.00 0.01 0.12 0.28 0.29 0.22 0.14 0.23 0.28 0.28 0.23 0.16 0.16 0.12 0.18 0.13 0.19 0.16 0.26
0.00 0.00 0.00 0.00 0.00 0.00 0.00 0.00 0.00 0.00 0.00 0.00 0.00 0.00 0.00 0.00 0.00 0.00 0.01 0.01 0.01 0.01 0.01 0.00 0.01 0.01 0.02 0.15 0.49 0.52 0.38 0.40 0.30 0.29 0.29 0.25 0.16 0.09 0.17 0.22 0.23 0.24 0.34
0.00 0.00 0.00 0.00 0.00 0.00 0.00 0.00 0.00 0.00 0.00 0.00 0.00 0.00 0.00 0.00 0.00 0.01 0.01 0.01 0.01 0.01 0.02 0.01 0.01 0.02 0.03 0.01 0.13 0.66 0.99 0.72 0.59 0.39 0.29 0.28 0.42 0.53 0.47 0.48 0.52 0.45 0.37
0.00 0.00 0.00 0.00 0.00 0.00 0.00 0.00 0.00 0.00 0.00 0.00 0.00 0.00 0.00 0.00 0.00 0.01 0.01 0.01 0.02 0.02 0.02 0.02 0.02 0.02 0.04 0.04 0.02 0.03 0.21 0.50 0.48 0.42 0.39 0.40 0.34 0.51 0.82 1.37 1.52 1.67 1.69
0.00 0.00 0.00 0.00 0.00 0.00 0.00 0.00 0.00 0.00 0.00 0.00 0.00 0.00 0.00 0.00 0.00 0.00 0.01 0.01 0.01 0.02 0.03 0.03 0.02 0.03 0.04 0.05 0.06 0.06 0.22 0.55 0.48 0.33 0.24 0.17 0.19 0.21 0.30 0.32 0.65 1.03 1.06
0.00 0.00 0.00 0.00 0.00 0.00 0.00 0.00 0.00 0.00 0.00 0.00 0.00 0.00 0.00 0.00 0.01 0.01 0.01 0.01 0.01 0.01 0.02 0.02 0.02 0.03 0.04 0.05 0.07 0.07 0.09 0.20 0.42 0.58 0.45 0.25 0.16 0.10 0.14 0.17 0.21 0.31 0.30

GFSSE_prec_precacc24_174.txt.gz
Total_Precipitation_Accumulation
0.06 0.02 0.04 0.03 0.02 0.03 0.02 0.01 0.00 0.00 0.00 0.00 0.00 0.00 0.00 0.00 0.00 0.00 0.00 0.00 0.00 0.01 0.00 0.00 0.00 0.01 0.02 0.00 0.00 0.00 0.00 0.00 0.00 0.00 0.01 0.05 0.08 0.07 0.03 0.03 0.07 0.32 0.16
0.11 0.07 0.03 0.03 0.02 0.02 0.02 0.01 0.01 0.01 0.01 0.00 0.00 0.00 0.00 0.00 0.00 0.00 0.00 0.01 0.01 0.03 0.01 0.00 0.00 0.00 0.00 0.00 0.00 0.00 0.00 0.00 0.00 0.00 0.01 0.05 0.09 0.14 0.11 0.12 0.20 0.56 0.21
0.08 0.05 0.01 0.02 0.03 0.03 0.04 0.03 0.02 0.01 0.01 0.01 0.02 0.02 0.01 0.01 0.01 0.01 0.01 0.01 0.01 0.03 0.04 0.01 0.00 0.00 0.00 0.00 0.00 0.00 0.00 0.00 0.00 0.00 0.04 0.14 0.08 0.17 0.15 0.17 0.19 0.24 0.34
0.12 0.04 0.02 0.01 0.03 0.03 0.04 0.03 0.03 0.02 0.01 0.00 0.01 0.02 0.03 0.02 0.02 0.02 0.03 0.03 0.04 0.05 0.06 0.06 0.07 0.05 0.03 0.00 0.00 0.00 0.00 0.00 0.00 0.00 0.03 0.20 0.34 0.24 0.24 0.15 0.18 0.26 0.33
0.19 0.06 0.01 0.01 0.00 0.00 0.00 0.01 0.01 0.01 0.01 0.01 0.00 0.00 0.04 0.07 0.05 0.03 0.01 0.01 0.02 0.06 0.06 0.08 0.09 0.06 0.02 0.00 0.00 0.00 0.00 0.00 0.00 0.00 0.04 0.27 0.38 0.15 0.22 0.15 0.12 0.13 0.17
0.10 0.08 0.01 0.00 0.00 0.00 0.00 0.00 0.00 0.00 0.00 0.00 0.00 0.01 0.06 0.12 0.12 0.07 0.01 0.00 0.01 0.04 0.06 0.06 0.03 0.01 0.00 0.00 0.00 0.00 0.00 0.00 0.00 0.00 0.03 0.22 0.24 0.18 0.22 0.19 0.13 0.10 0.07
0.06 0.12 0.08 0.01 0.00 0.00 0.00 0.00 0.00 0.00 0.00 0.00 0.00 0.00 0.01 0.03 0.06 0.05 0.02 0.00 0.00 0.00 0.02 0.02 0.01 0.00 0.00 0.00 0.00 0.00 0.00 0.00 0.00 0.00 0.02 0.21 0.41 0.15 0.26 0.20 0.12 0.07 0.06
0.02 0.04 0.10 0.11 0.02 0.00 0.01 0.03 0.03 0.00 0.00 0.00 0.03 0.01 0.00 0.00 0.01 0.03 0.04 0.02 0.00 0.00 0.00 0.00 0.00 0.00 0.00 0.00 0.00 0.00 0.00 0.00 0.00 0.00 0.01 0.03 0.05 0.04 0.16 0.16 0.08 0.04 0.04
0.01 0.07 0.09 0.16 0.03 0.04 0.06 0.03 0.01 0.00 0.00 0.00 0.02 0.07 0.02 0.00 0.00 0.00 0.03 0.06 0.03 0.01 0.01 0.00 0.00 0.00 0.00 0.00 0.00 0.00 0.00 0.00 0.00 0.01 0.00 0.00 0.05 0.11 0.13 0.15 0.12 0.06 0.05
0.02 0.06 0.05 0.11 0.09 0.03 0.02 0.01 0.00 0.00 0.00 0.00 0.00 0.01 0.03 0.04 0.05 0.05 0.08 0.06 0.07 0.04 0.02 0.01 0.02 0.02 0.00 0.02 0.02 0.01 0.01 0.02 0.01 0.01 0.04 0.04 0.02 0.07 0.12 0.15 0.14 0.09 0.08
0.01 0.02 0.05 0.06 0.05 0.03 0.00 0.00 0.00 0.00 0.00 0.00 0.00 0.00 0.00 0.02 0.06 0.11 0.16 0.18 0.11 0.07 0.07 0.06 0.05 0.03 0.00 0.00 0.00 0.05 0.02 0.00 0.01 0.02 0.01 0.10 0.10 0.08 0.10 0.10 0.06 0.07 0.05
0.00 0.01 0.03 0.03 0.01 0.00 0.00 0.00 0.00 0.00 0.00 0.00 0.00 0.00 0.00 0.00 0.00 0.01 0.03 0.16 0.11 0.01 0.01 0.04 0.04 0.03 0.00 0.00 0.00 0.00 0.00 0.00 0.01 0.01 0.01 0.07 0.08 0.05 0.11 0.09 0.05 0.05 0.05
0.00 0.00 0.01 0.00 0.00 0.00 0.00 0.00 0.00 0.00 0.00 0.00 0.00 0.00 0.00 0.00 0.00 0.00 0.01 0.05 0.09 0.12 0.05 0.10 0.07 0.05 0.05 0.06 0.04 0.01 0.01 0.01 0.01 0.01 0.00 0.00 0.01 0.06 0.11 0.11 0.09 0.07 0.07
0.00 0.00 0.00 0.00 0.00 0.00 0.00 0.00 0.00 0.00 0.00 0.00 0.00 0.00 0.00 0.00 0.00 0.00 0.00 0.00 0.03 0.09 0.10 0.18 0.18 0.19 0.21 0.17 0.09 0.04 0.12 0.03 0.02 0.02 0.01 0.01 0.00 0.01 0.06 0.11 0.13 0.14 0.08
0.00 0.00 0.00 0.00 0.00 0.00 0.00 0.00 0.00 0.00 0.00 0.00 0.00 0.00 0.00 0.00 0.00 0.00 0.00 0.00 0.00 0.02 0.06 0.10 0.12 0.18 0.23 0.31 0.24 0.20 0.14 0.12 0.07 0.09 0.05 0.02 0.02 0.05 0.06 0.11 0.13 0.14 0.15
0.00 0.00 0.00 0.00 0.00 0.00 0.00 0.00 0.00 0.00 0.00 0.00 0.00 0.00 0.00 0.00 0.00 0.00 0.00 0.00 0.00 0.00 0.01 0.06 0.07 0.09 0.11 0.17 0.21 0.23 0.14 0.13 0.10 0.07 0.09 0.05 0.04 0.02 0.07 0.11 0.20 0.20 0.16
0.00 0.00 0.00 0.00 0.00 0.00 0.00 0.00 0.00 0.00 0.00 0.00 0.00 0.00 0.00 0.00 0.00 0.00 0.00 0.00 0.00 0.00 0.00 0.00 0.03 0.08 0.09 0.09 0.11 0.20 0.21 0.20 0.13 0.07 0.10 0.10 0.04 0.03 0.03 0.06 0.15 0.22 0.18
0.00 0.00 0.00 0.00 0.00 0.00 0.00 0.00 0.00 0.00 0.00 0.00 0.00 0.00 0.00 0.00 0.00 0.00 0.00 0.00 0.00 0.00 0.00 0.00 0.00 0.03 0.07 0.09 0.10 0.12 0.20 0.21 0.15 0.06 0.07 0.19 0.15 0.06 0.10 0.10 0.14 0.27 0.28
0.00 0.00 0.00 0.00 0.00 0.00 0.00 0.00 0.00 0.00 0.00 0.00 0.00 0.00 0.00 0.00 0.00 0.00 0.00 0.00 0.00 0.00 0.00 0.00 0.00 0.00 0.02 0.06 0.09 0.11 0.15 0.17 0.20 0.18 0.12 0.14 0.25 0.16 0.07 0.08 0.15 0.25 0.35
0.00 0.00 0.00 0.00 0.00 0.00 0.00 0.00 0.00 0.00 0.00 0.00 0.00 0.00 0.00 0.00 0.00 0.00 0.00 0.00 0.00 0.00 0.00 0.00 0.00 0.00 0.00 0.02 0.05 0.07 0.12 0.21 0.24 0.23 0.15 0.10 0.16 0.21 0.08 0.05 0.10 0.16 0.29
0.00 0.00 0.00 0.00 0.00 0.00 0.00 0.00 0.00 0.00 0.00 0.00 0.00 0.00 0.00 0.00 0.00 0.00 0.00 0.00 0.00 0.00 0.00 0.00 0.00 0.00 0.00 0.00 0.04 0.06 0.08 0.16 0.22 0.26 0.23 0.16 0.16 0.12 0.18 0.13 0.18 0.16 0.26
0.00 0.00 0.00 0.00 0.00 0.00 0.00 0.00 0.00 0.00 0.00 0.00 0.00 0.00 0.00 0.00 0.00 0.00 0.01 0.01 0.01 0.01 0.00 0.00 0.01 0.01 0.01 0.00 0.02 0.07 0.10 0.14 0.18 0.25 0.26 0.23 0.16 0.08 0.16 0.21 0.22 0.25 0.35
0.00 0.00 0.00 0.00 0.00 0.00 0.00 0.00 0.00 0.00 0.00 0.00 0.00 0.00 0.00 0.00 0.00 0.00 0.01 0.01 0.01 0.01 0.01 0.01 0.01 0.01 0.02 0.01 0.01 0.07 0.11 0.08 0.12 0.18 0.25 0.26 0.40 0.51 0.46 0.47 0.51 0.46 0.37
0.00 0.00 0.00 0.00 0.00 0.00 0.00 0.00 0.00 0.00 0.00 0.00 0.00 0.00 0.00 0.00 0.00 0.00 0.01 0.00 0.01 0.01 0.01 0.01 0.02 0.02 0.04 0.03 0.01 0.01 0.06 0.10 0.12 0.09 0.22 0.35 0.32 0.50 0.81 1.36 1.51 1.66 1.69
0.00 0.00 0.00 0.00 0.00 0.00 0.00 0.00 0.00 0.00 0.00 0.00 0.00 0.00 0.00 0.00 0.00 0.00 0.01 0.00 0.01 0.01 0.02 0.02 0.02 0.02 0.03 0.04 0.04 0.03 0.03 0.04 0.08 0.13 0.09 0.10 0.14 0.18 0.30 0.32 0.65 1.03 1.06
0.00 0.00 0.00 0.00 0.00 0.00 0.00 0.00 0.00 0.00 0.00 0.00 0.00 0.00 0.00 0.00 0.00 0.01 0.01 0.01 0.01 0.01 0.02 0.01 0.02 0.02 0.03 0.04 0.05 0.05 0.05 0.09 0.07 0.11 0.09 0.07 0.10 0.08 0.15 0.18 0.22 0.31 0.30